QTR65U OTHH-CYYZ

Flight info

Callsign QTR65U
Flight time N/A
Altitude 34000
Route TULUB B457 NARMI N697 HIL T540 ENABI L550 NOVPA J981 DATOK L550 GENIV L324 LAKTO/N0488F360 DCT OTHON UN128 YOYYO UN618 IMR UN128 LMO DCT EVIVI L863 OKANA DCT NIVIS DCT BABIT DCT SOGMO DCT SASAL DCT DEXIT DCT RUDNO DCT SULUS L604 MAPOX DCT RAVLO/N0477F380 Y70 OTBED L60 PENIL M144 BAGSO DCT NEBIN/M083F380 DCT 5330N02000W 5230N03000W 5130N04000W 5030N05000W DCT BUDAR/N0470F380 N448A ANATI/N0479F400 DCT POLTY IMEBA9
Aircraft A388/J-SADE2E3FGHIJ3J4J5M1RWXY/LB1D1

Departure

Time 2026-05-05 22:31
Airport Hamad International Airport (OTHH)

Arrival

Time N/A
Airport Toronto Pearson International Airport (CYYZ)
Time Latitude Longitude Altitude Speed Heading
2026-05-05 21:38 25.26591 51.61034 35 ft 0 kts 68°
2026-05-05 22:13 25.26589 51.61028 34 ft 4 kts 68°
2026-05-05 22:13 25.26579 51.61001 33 ft 4 kts 68°
2026-05-05 22:13 25.26572 51.60979 33 ft 4 kts 74°
2026-05-05 22:13 25.26569 51.60953 32 ft 4 kts 97°
2026-05-05 22:14 25.26576 51.60925 33 ft 4 kts 113°
2026-05-05 22:14 25.26585 51.60902 33 ft 4 kts 113°
2026-05-05 22:14 25.26594 51.60880 32 ft 0 kts 113°
2026-05-05 22:20 25.26592 51.60886 31 ft 5 kts 113°
2026-05-05 22:20 25.26562 51.60928 40 ft 8 kts 144°
2026-05-05 22:20 25.26513 51.60958 35 ft 9 kts 159°
2026-05-05 22:21 25.26466 51.60959 35 ft 7 kts 202°
2026-05-05 22:21 25.26433 51.60925 35 ft 7 kts 247°
2026-05-05 22:21 25.26436 51.60899 35 ft 4 kts 299°
2026-05-05 22:21 25.26451 51.60883 35 ft 3 kts 345°
2026-05-05 22:22 25.26492 51.60862 35 ft 10 kts 320°
2026-05-05 22:22 25.26528 51.60798 35 ft 11 kts 294°
2026-05-05 22:22 25.26563 51.60710 35 ft 14 kts 293°
2026-05-05 22:22 25.26587 51.60613 35 ft 12 kts 250°
2026-05-05 22:23 25.26560 51.60517 35 ft 14 kts 248°
2026-05-05 22:23 25.26521 51.60410 34 ft 16 kts 248°
2026-05-05 22:23 25.26522 51.60318 34 ft 8 kts 326°
2026-05-05 22:23 25.26581 51.60287 34 ft 11 kts 337°
2026-05-05 22:24 25.26658 51.60253 33 ft 13 kts 339°
2026-05-05 22:24 25.26748 51.60213 33 ft 15 kts 338°
2026-05-05 22:24 25.26848 51.60170 33 ft 16 kts 338°
2026-05-05 22:24 25.26953 51.60123 33 ft 17 kts 338°
2026-05-05 22:25 25.27064 51.60074 33 ft 18 kts 338°
2026-05-05 22:25 25.27178 51.60022 34 ft 18 kts 338°
2026-05-05 22:25 25.27296 51.59971 34 ft 18 kts 339°
2026-05-05 22:25 25.27417 51.59918 34 ft 19 kts 338°
2026-05-05 22:26 25.27541 51.59864 34 ft 19 kts 338°
2026-05-05 22:26 25.27666 51.59808 33 ft 20 kts 338°
2026-05-05 22:26 25.27795 51.59751 34 ft 20 kts 338°
2026-05-05 22:26 25.27925 51.59694 34 ft 20 kts 338°
2026-05-05 22:27 25.28057 51.59636 33 ft 20 kts 338°
2026-05-05 22:27 25.28188 51.59578 34 ft 20 kts 338°
2026-05-05 22:27 25.28319 51.59520 34 ft 20 kts 338°
2026-05-05 22:27 25.28450 51.59461 34 ft 20 kts 338°
2026-05-05 22:28 25.28581 51.59405 35 ft 20 kts 339°
2026-05-05 22:28 25.28713 51.59347 34 ft 21 kts 338°
2026-05-05 22:28 25.28847 51.59288 34 ft 21 kts 338°
2026-05-05 22:28 25.28971 51.59233 33 ft 13 kts 338°
2026-05-05 22:29 25.29059 51.59194 33 ft 14 kts 338°
2026-05-05 22:29 25.29126 51.59130 33 ft 13 kts 285°
2026-05-05 22:29 25.29094 51.59046 31 ft 14 kts 225°
2026-05-05 22:29 25.29012 51.59017 31 ft 12 kts 171°
2026-05-05 22:30 25.28980 51.59026 31 ft 0 kts 159°
2026-05-05 22:30 25.28943 51.59042 31 ft 25 kts 159°
2026-05-05 22:30 25.28570 51.59208 32 ft 93 kts 158°
2026-05-05 22:30 25.27783 51.59557 29 ft 148 kts 159°
2026-05-05 22:31 25.26709 51.60047 72 ft 179 kts 157°
2026-05-05 22:31 25.25529 51.60536 532 ft 177 kts 160°
2026-05-05 22:31 25.24375 51.60989 899 ft 181 kts 156°
2026-05-05 22:31 25.23192 51.61494 1334 ft 182 kts 156°
2026-05-05 22:32 25.21987 51.62000 1665 ft 190 kts 156°
2026-05-05 22:32 25.20734 51.62553 1753 ft 199 kts 155°
2026-05-05 22:32 25.19426 51.63147 1808 ft 206 kts 155°
2026-05-05 22:32 25.18078 51.63760 1857 ft 213 kts 155°
2026-05-05 22:33 25.16680 51.64394 1906 ft 226 kts 155°
2026-05-05 22:33 25.15173 51.65074 2031 ft 242 kts 155°
2026-05-05 22:33 25.13536 51.65782 2166 ft 262 kts 162°
2026-05-05 22:33 25.11673 51.65877 2408 ft 277 kts 191°
2026-05-05 22:34 25.09919 51.64987 2854 ft 282 kts 219°
2026-05-05 22:34 25.08688 51.63314 3319 ft 283 kts 245°
2026-05-05 22:34 25.07961 51.61299 3801 ft 283 kts 253°
2026-05-05 22:34 25.07345 51.59236 4310 ft 283 kts 253°
2026-05-05 22:35 25.06703 51.57175 4819 ft 284 kts 252°
2026-05-05 22:35 25.06014 51.55123 5313 ft 286 kts 251°
2026-05-05 22:35 25.05300 51.53106 5859 ft 286 kts 250°
2026-05-05 22:35 25.04554 51.51040 6352 ft 287 kts 252°
2026-05-05 22:36 25.04251 51.48924 6835 ft 283 kts 277°
2026-05-05 22:36 25.04817 51.46876 7326 ft 280 kts 303°
2026-05-05 22:36 25.06146 51.45329 7835 ft 280 kts 328°
2026-05-05 22:36 25.07927 51.44469 8325 ft 281 kts 340°
2026-05-05 22:37 25.09780 51.43758 8829 ft 283 kts 340°
2026-05-05 22:37 25.11641 51.43022 9348 ft 285 kts 338°
2026-05-05 22:37 25.13497 51.42249 9863 ft 286 kts 338°
2026-05-05 22:37 25.15366 51.41442 10227 ft 294 kts 337°
2026-05-05 22:38 25.17317 51.40583 10346 ft 309 kts 337°
2026-05-05 22:38 25.19357 51.39679 10478 ft 323 kts 337°
2026-05-05 22:38 25.21483 51.38737 10623 ft 335 kts 337°
2026-05-05 22:38 25.23661 51.37773 11050 ft 338 kts 337°
2026-05-05 22:39 25.25848 51.36805 11534 ft 340 kts 337°
2026-05-05 22:39 25.28093 51.35949 11985 ft 343 kts 347°
2026-05-05 22:39 25.30480 51.35757 12489 ft 347 kts
2026-05-05 22:39 25.32850 51.36285 12973 ft 350 kts 15°
2026-05-05 22:40 25.35191 51.37060 13457 ft 352 kts 14°
2026-05-05 22:40 25.37551 51.37810 13903 ft 355 kts 14°
2026-05-05 22:40 25.39936 51.38558 14286 ft 358 kts 14°
2026-05-05 22:40 25.42347 51.39314 14705 ft 361 kts 14°
2026-05-05 22:41 25.44776 51.40077 15113 ft 364 kts 14°
2026-05-05 22:41 25.47190 51.40841 15507 ft 367 kts 16°
2026-05-05 22:41 25.49579 51.41890 15908 ft 372 kts 26°
2026-05-05 22:41 25.51800 51.43380 16310 ft 376 kts 35°
2026-05-05 22:42 25.53835 51.45218 16692 ft 379 kts 39°
2026-05-05 22:42 25.55869 51.47092 17104 ft 382 kts 38°
2026-05-05 22:42 25.57933 51.48967 17504 ft 385 kts 38°
2026-05-05 22:42 25.60011 51.50852 17904 ft 388 kts 38°
2026-05-05 22:43 25.62105 51.52753 18245 ft 391 kts 38°
2026-05-05 22:43 25.64292 51.54543 18551 ft 392 kts 28°
2026-05-05 22:43 25.66808 51.55705 18879 ft 393 kts 13°
2026-05-05 22:43 25.69506 51.56135 19189 ft 393 kts 359°
2026-05-05 22:44 25.72251 51.56207 19512 ft 395 kts 360°
2026-05-05 22:44 25.75011 51.56310 19818 ft 398 kts
2026-05-05 22:44 25.77783 51.56425 20141 ft 400 kts
2026-05-05 22:44 25.80567 51.56366 20438 ft 400 kts 348°
2026-05-05 22:45 25.82358 51.55893 20652 ft 399 kts 338°
2026-05-05 22:45 25.84815 51.54516 20970 ft 396 kts 322°
2026-05-05 22:45 25.86820 51.52445 21305 ft 394 kts 306°
2026-05-05 22:45 25.88247 51.49865 21641 ft 393 kts 295°
2026-05-05 22:46 25.89499 51.47166 22008 ft 394 kts 295°
2026-05-05 22:46 25.91193 51.43590 22444 ft 396 kts 296°
2026-05-05 22:46 25.92071 51.41760 22663 ft 398 kts 296°
2026-05-05 22:46 25.93379 51.39048 23003 ft 399 kts 296°
2026-05-05 22:47 25.94695 51.36325 23315 ft 401 kts 296°
2026-05-05 22:47 25.96017 51.33591 23612 ft 402 kts 296°
2026-05-05 22:47 25.97344 51.30842 23809 ft 406 kts 295°
2026-05-05 22:47 25.98665 51.28069 24131 ft 405 kts 295°
2026-05-05 22:48 25.99962 51.25293 24446 ft 405 kts 295°
2026-05-05 22:48 26.01242 51.22542 24739 ft 406 kts 294°
2026-05-05 22:48 26.02540 51.19755 25030 ft 407 kts 294°
2026-05-05 22:48 26.03842 51.16965 25382 ft 406 kts 294°
2026-05-05 22:49 26.05146 51.14173 25715 ft 407 kts 294°
2026-05-05 22:49 26.06453 51.11376 26026 ft 408 kts 294°
2026-05-05 22:49 26.07758 51.08580 26361 ft 408 kts 294°
2026-05-05 22:49 26.09070 51.05769 26708 ft 409 kts 294°
2026-05-05 22:50 26.10378 51.02962 27054 ft 410 kts 294°
2026-05-05 22:50 26.11689 51.00143 27404 ft 410 kts 293°
2026-05-05 22:50 26.12913 50.97278 27769 ft 410 kts 291°
2026-05-05 22:50 26.14079 50.94379 28142 ft 411 kts 290°
2026-05-05 22:51 26.15241 50.91471 28513 ft 412 kts 290°
2026-05-05 22:51 26.16416 50.88560 28888 ft 413 kts 291°
2026-05-05 22:51 26.17601 50.85651 29372 ft 412 kts 290°
2026-05-05 22:51 26.18790 50.82747 29791 ft 412 kts 290°
2026-05-05 22:52 26.19984 50.79833 30061 ft 415 kts 290°
2026-05-05 22:52 26.21184 50.76902 30323 ft 418 kts 290°
2026-05-05 22:52 26.22393 50.73951 30602 ft 420 kts 290°
2026-05-05 22:52 26.23609 50.70980 30884 ft 422 kts 290°
2026-05-05 22:53 26.24769 50.68016 31150 ft 423 kts 286°
2026-05-05 22:53 26.25686 50.64911 31412 ft 422 kts 281°
2026-05-05 22:53 26.26325 50.61726 31721 ft 420 kts 276°
2026-05-05 22:53 26.26740 50.58501 31980 ft 422 kts 275°
2026-05-05 22:54 26.27154 50.55257 32250 ft 424 kts 275°
2026-05-05 22:54 26.27585 50.51959 32529 ft 426 kts 275°
2026-05-05 22:54 26.28007 50.48732 32818 ft 428 kts 274°
2026-05-05 22:54 26.28434 50.45454 33223 ft 427 kts 274°
2026-05-05 22:55 26.28859 50.42168 33445 ft 430 kts 274°
2026-05-05 22:55 26.29283 50.38856 33621 ft 434 kts 274°
2026-05-05 22:55 26.29747 50.35524 33769 ft 440 kts 276°
2026-05-05 22:56 26.31462 50.28843 33745 ft 454 kts 285°
2026-05-05 22:56 26.33846 50.22311 33740 ft 455 kts 286°
2026-05-05 22:57 26.36201 50.15751 33733 ft 457 kts 286°
2026-05-05 22:57 26.38561 50.09174 33751 ft 457 kts 286°
2026-05-05 22:58 26.40917 50.02607 33729 ft 455 kts 285°
2026-05-05 22:58 26.43261 49.96063 33729 ft 454 kts 285°
2026-05-05 22:59 26.45602 49.89516 33723 ft 453 kts 285°
2026-05-05 22:59 26.47930 49.82992 33721 ft 452 kts 285°
2026-05-05 23:00 26.50963 49.73088 33739 ft 447 kts 279°
2026-05-05 23:00 26.52638 49.66446 33711 ft 448 kts 280°
2026-05-05 23:01 26.54344 49.59714 33715 ft 448 kts 280°
2026-05-05 23:01 26.56023 49.53057 33718 ft 448 kts 280°
2026-05-05 23:02 26.57709 49.46348 33730 ft 449 kts 280°
2026-05-05 23:02 26.59394 49.39625 33737 ft 449 kts 280°
2026-05-05 23:03 26.61076 49.32907 33755 ft 449 kts 279°
2026-05-05 23:03 26.62753 49.26194 33757 ft 448 kts 279°
2026-05-05 23:04 26.64424 49.19488 33755 ft 447 kts 279°
2026-05-05 23:04 26.66087 49.12795 33748 ft 446 kts 279°
2026-05-05 23:05 26.67744 49.06115 33749 ft 445 kts 279°
2026-05-05 23:05 26.69396 48.99443 33741 ft 445 kts 279°
2026-05-05 23:06 26.71044 48.92775 33761 ft 444 kts 279°
2026-05-05 23:06 26.72684 48.86121 33748 ft 443 kts 279°
2026-05-05 23:07 26.74316 48.79480 33767 ft 443 kts 279°
2026-05-05 23:07 26.75802 48.72863 33764 ft 438 kts 274°
2026-05-05 23:08 26.76405 48.66132 33757 ft 433 kts 266°
2026-05-05 23:08 26.76255 48.59418 33764 ft 432 kts 264°
2026-05-05 23:09 26.76088 48.52696 33777 ft 432 kts 264°
2026-05-05 23:09 26.75914 48.45962 33787 ft 433 kts 264°
2026-05-05 23:10 26.75730 48.39234 33788 ft 433 kts 264°
2026-05-05 23:10 26.75542 48.32500 33794 ft 433 kts 264°
2026-05-05 23:11 26.75354 48.25756 33805 ft 434 kts 264°
2026-05-05 23:11 26.75163 48.18998 33804 ft 434 kts 264°
2026-05-05 23:12 26.74969 48.12250 33816 ft 434 kts 264°
2026-05-05 23:12 26.74772 48.05535 33823 ft 435 kts 264°
2026-05-05 23:13 26.74570 47.98776 33828 ft 435 kts 264°
2026-05-05 23:13 26.74366 47.92013 33840 ft 435 kts 264°
2026-05-05 23:14 26.74391 47.85228 33836 ft 438 kts 269°
2026-05-05 23:14 26.74755 47.78430 33866 ft 437 kts 268°
2026-05-05 23:15 26.75094 47.71645 33861 ft 436 kts 268°
2026-05-05 23:15 26.75429 47.64872 33846 ft 436 kts 268°
2026-05-05 23:16 26.75762 47.58106 33853 ft 435 kts 268°
2026-05-05 23:16 26.76092 47.51349 33852 ft 434 kts 268°
2026-05-05 23:17 26.76419 47.44609 33851 ft 434 kts 268°
2026-05-05 23:17 26.76779 47.37860 33847 ft 435 kts 271°
2026-05-05 23:18 26.77754 47.31176 33856 ft 439 kts 274°
2026-05-05 23:18 26.78795 47.24452 33884 ft 438 kts 274°
2026-05-05 23:19 26.79824 47.17742 33871 ft 438 kts 274°
2026-05-05 23:19 26.80853 47.11024 33874 ft 438 kts 274°
2026-05-05 23:20 26.81878 47.04311 33881 ft 437 kts 274°
2026-05-05 23:20 26.82901 46.97595 33882 ft 438 kts 274°
2026-05-05 23:21 26.83922 46.90868 33886 ft 438 kts 274°
2026-05-05 23:21 26.84938 46.84153 33905 ft 438 kts 274°
2026-05-05 23:22 26.85952 46.77435 33903 ft 437 kts 274°
2026-05-05 23:22 26.86961 46.70725 33903 ft 437 kts 274°
2026-05-05 23:23 26.87964 46.64026 33901 ft 436 kts 274°
2026-05-05 23:23 26.88957 46.57369 33895 ft 436 kts 274°
2026-05-05 23:24 26.89952 46.50681 33900 ft 435 kts 274°
2026-05-05 23:24 26.90944 46.43995 33931 ft 434 kts 273°
2026-05-05 23:25 26.91932 46.37321 33918 ft 434 kts 273°
2026-05-05 23:25 26.92918 46.30662 33922 ft 433 kts 274°
2026-05-05 23:26 26.93902 46.24012 33919 ft 432 kts 273°
2026-05-05 23:26 26.94880 46.17370 33912 ft 431 kts 273°
2026-05-05 23:27 26.95854 46.10732 33905 ft 432 kts 273°
2026-05-05 23:27 26.96824 46.04096 33942 ft 432 kts 273°
2026-05-05 23:28 26.97792 45.97454 33933 ft 431 kts 273°
2026-05-05 23:28 26.98757 45.90815 33923 ft 431 kts 273°
2026-05-05 23:29 26.99719 45.84174 33926 ft 432 kts 273°
2026-05-05 23:29 27.00677 45.77527 33928 ft 432 kts 273°
2026-05-05 23:30 27.01472 45.72001 33924 ft 432 kts 273°
2026-05-05 23:30 27.02587 45.64218 33958 ft 432 kts 273°
2026-05-05 23:31 27.03538 45.57561 33951 ft 432 kts 273°
2026-05-05 23:31 27.04479 45.50956 33945 ft 432 kts 273°
2026-05-05 23:32 27.05423 45.44307 33946 ft 431 kts 273°
2026-05-05 23:32 27.06213 45.37654 33937 ft 429 kts 271°
2026-05-05 23:33 27.06798 45.32134 33938 ft 429 kts 271°
2026-05-05 23:33 27.07525 45.25481 33940 ft 430 kts 271°
2026-05-05 23:34 27.08263 45.18830 33954 ft 430 kts 271°
2026-05-05 23:34 27.08999 45.12177 33947 ft 429 kts 271°
2026-05-05 23:35 27.09731 45.05535 33945 ft 429 kts 271°
2026-05-05 23:35 27.10459 44.98886 33954 ft 429 kts 270°
2026-05-05 23:36 27.11184 44.92246 33948 ft 428 kts 270°
2026-05-05 23:36 27.11904 44.85608 33943 ft 428 kts 270°
2026-05-05 23:37 27.12621 44.78983 33940 ft 427 kts 270°
2026-05-05 23:37 27.13334 44.72358 33938 ft 427 kts 270°
2026-05-05 23:38 27.14045 44.65731 33938 ft 428 kts 270°
2026-05-05 23:38 27.14754 44.59101 33949 ft 428 kts 270°
2026-05-05 23:39 27.15461 44.52461 33932 ft 428 kts 270°
2026-05-05 23:39 27.16161 44.45856 33942 ft 429 kts 270°
2026-05-05 23:40 27.16863 44.39201 33961 ft 429 kts 270°
2026-05-05 23:40 27.17558 44.32540 33964 ft 429 kts 270°
2026-05-05 23:41 27.18247 44.25885 33959 ft 428 kts 270°
2026-05-05 23:41 27.18932 44.19237 33953 ft 428 kts 270°
2026-05-05 23:42 27.19612 44.12607 33966 ft 427 kts 270°
2026-05-05 23:42 27.20290 44.05968 33958 ft 427 kts 270°
2026-05-05 23:43 27.20962 43.99356 33959 ft 426 kts 270°
2026-05-05 23:43 27.21628 43.92780 33962 ft 426 kts 270°
2026-05-05 23:44 27.22293 43.86172 33957 ft 425 kts 270°
2026-05-05 23:44 27.22954 43.79576 33951 ft 425 kts 270°
2026-05-05 23:45 27.23612 43.72970 33962 ft 425 kts 270°
2026-05-05 23:45 27.24268 43.66363 33963 ft 426 kts 270°
2026-05-05 23:46 27.24923 43.59747 33974 ft 426 kts 270°
2026-05-05 23:46 27.25573 43.53168 33982 ft 427 kts 270°
2026-05-05 23:47 27.26224 43.46538 33988 ft 427 kts 270°
2026-05-05 23:47 27.26871 43.39905 33994 ft 427 kts 270°
2026-05-05 23:48 27.27516 43.33267 33994 ft 427 kts 270°
2026-05-05 23:48 27.28157 43.26634 33996 ft 427 kts 270°
2026-05-05 23:49 27.28795 43.20002 33997 ft 427 kts 270°
2026-05-05 23:49 27.29431 43.13357 33998 ft 427 kts 270°
2026-05-05 23:50 27.30062 43.06729 33980 ft 426 kts 270°
2026-05-05 23:50 27.30690 43.00106 34003 ft 426 kts 270°
2026-05-05 23:51 27.31311 42.93509 34002 ft 427 kts 270°
2026-05-05 23:51 27.31933 42.86872 34001 ft 427 kts 270°
2026-05-05 23:52 27.32553 42.80234 34008 ft 427 kts 270°
2026-05-05 23:52 27.33171 42.73578 34011 ft 427 kts 270°
2026-05-05 23:53 27.33784 42.66935 34015 ft 427 kts 270°
2026-05-05 23:53 27.34394 42.60288 34042 ft 427 kts 270°
2026-05-05 23:54 27.35002 42.53633 34023 ft 427 kts 270°
2026-05-05 23:54 27.35606 42.46988 34022 ft 427 kts 270°
2026-05-05 23:55 27.36204 42.40387 34047 ft 427 kts 269°
2026-05-05 23:55 27.36799 42.33751 34032 ft 426 kts 269°
2026-05-05 23:56 27.37391 42.27119 34020 ft 425 kts 270°
2026-05-05 23:56 27.37979 42.20496 34025 ft 426 kts 269°
2026-05-05 23:57 27.38565 42.13866 34030 ft 426 kts 269°
2026-05-05 23:57 27.39149 42.07237 34030 ft 426 kts 269°
2026-05-05 23:58 27.39728 42.00610 34037 ft 425 kts 269°
2026-05-05 23:58 27.40303 41.93981 34041 ft 426 kts 269°
2026-05-05 23:59 27.40877 41.87353 34043 ft 425 kts 269°
2026-05-05 23:59 27.41447 41.80734 34043 ft 425 kts 269°
2026-05-06 00:00 27.42035 41.74115 34055 ft 426 kts 272°
2026-05-06 00:00 27.43524 41.67583 34050 ft 438 kts 283°
2026-05-06 00:01 27.46339 41.61390 34045 ft 452 kts 293°
2026-05-06 00:01 27.49692 41.55412 34061 ft 451 kts 292°
2026-05-06 00:02 27.53017 41.49411 34048 ft 451 kts 292°
2026-05-06 00:02 27.56322 41.43449 34042 ft 452 kts 292°
2026-05-06 00:03 27.59648 41.37446 34039 ft 452 kts 293°
2026-05-06 00:03 27.62980 41.31423 34031 ft 453 kts 293°
2026-05-06 00:04 27.66312 41.25390 34029 ft 452 kts 293°
2026-05-06 00:04 27.69639 41.19360 34027 ft 452 kts 293°
2026-05-06 00:05 27.74617 41.10317 34017 ft 452 kts 293°
2026-05-06 00:06 27.77935 41.04280 34022 ft 452 kts 293°
2026-05-06 00:06 27.81249 40.98245 34031 ft 452 kts 293°
2026-05-06 00:07 27.84563 40.92199 34031 ft 452 kts 293°
2026-05-06 00:07 27.87855 40.86182 34023 ft 453 kts 293°
2026-05-06 00:08 27.91173 40.80114 34029 ft 454 kts 293°
2026-05-06 00:08 27.94481 40.74039 34029 ft 454 kts 293°
2026-05-06 00:09 27.97802 40.67952 34037 ft 455 kts 293°
2026-05-06 00:09 28.01125 40.61855 34040 ft 455 kts 293°
2026-05-06 00:10 28.04444 40.55751 34040 ft 455 kts 293°
2026-05-06 00:10 28.07756 40.49648 34049 ft 455 kts 293°
2026-05-06 00:11 28.11069 40.43535 34050 ft 455 kts 293°
2026-05-06 00:11 28.14363 40.37450 34027 ft 456 kts 293°
2026-05-06 00:12 28.17679 40.31316 34045 ft 456 kts 293°
2026-05-06 00:12 28.20990 40.25181 34058 ft 456 kts 293°
2026-05-06 00:13 28.24302 40.19032 34041 ft 457 kts 293°
2026-05-06 00:13 28.27617 40.12873 34036 ft 458 kts 293°
2026-05-06 00:14 28.31102 40.06804 34061 ft 465 kts 299°
2026-05-06 00:14 28.35197 40.01084 34054 ft 466 kts 300°
2026-05-06 00:15 28.39272 39.95355 34049 ft 466 kts 300°
2026-05-06 00:15 28.43337 39.89626 34049 ft 466 kts 300°
2026-05-06 00:16 28.47402 39.83894 34046 ft 465 kts 300°
2026-05-06 00:16 28.51461 39.78158 34064 ft 466 kts 300°
2026-05-06 00:17 28.55523 39.72412 34063 ft 466 kts 300°
2026-05-06 00:17 28.59582 39.66671 34062 ft 465 kts 300°
2026-05-06 00:18 28.63605 39.60969 34060 ft 465 kts 300°
2026-05-06 00:18 28.67650 39.55227 34068 ft 465 kts 300°
2026-05-06 00:19 28.71687 39.49490 34067 ft 464 kts 300°
2026-05-06 00:19 28.75720 39.43749 34065 ft 463 kts 300°
2026-05-06 00:20 28.79746 39.38010 34065 ft 463 kts 300°
2026-05-06 00:20 28.83763 39.32274 34053 ft 463 kts 300°
2026-05-06 00:21 28.87777 39.26538 34065 ft 462 kts 300°
2026-05-06 00:21 28.91782 39.20808 34062 ft 462 kts 300°
2026-05-06 00:22 28.95104 39.16045 34096 ft 462 kts 300°
2026-05-06 00:22 28.99108 39.10298 34083 ft 463 kts 300°
2026-05-06 00:23 29.03776 39.03588 34093 ft 464 kts 300°
2026-05-06 00:23 29.07134 38.98753 34098 ft 463 kts 299°
2026-05-06 00:23 29.08865 38.95703 34099 ft 452 kts 290°
2026-05-06 00:24 29.10084 38.92439 34096 ft 443 kts 281°
2026-05-06 00:24 29.11063 38.85670 34099 ft 430 kts 265°
2026-05-06 00:25 29.11008 38.78837 34100 ft 430 kts 265°
2026-05-06 00:25 29.10989 38.71997 34104 ft 430 kts 265°
2026-05-06 00:26 29.10958 38.65162 34119 ft 429 kts 265°
2026-05-06 00:26 29.10919 38.58336 34095 ft 429 kts 265°
2026-05-06 00:27 29.10877 38.51513 34092 ft 429 kts 265°
2026-05-06 00:27 29.10830 38.44692 34090 ft 429 kts 265°
2026-05-06 00:28 29.10780 38.37873 34085 ft 429 kts 265°
2026-05-06 00:28 29.10726 38.31060 34083 ft 429 kts 265°
2026-05-06 00:29 29.10669 38.24244 34085 ft 429 kts 265°
2026-05-06 00:29 29.10608 38.17422 34097 ft 429 kts 265°
2026-05-06 00:30 29.10544 38.10632 34092 ft 430 kts 265°
2026-05-06 00:30 29.10476 38.03801 34089 ft 430 kts 265°
2026-05-06 00:31 29.10406 37.96971 34080 ft 429 kts 265°
2026-05-06 00:31 29.10331 37.90142 34076 ft 429 kts 265°
2026-05-06 00:32 29.10252 37.83316 34072 ft 429 kts 265°
2026-05-06 00:32 29.10171 37.76488 34074 ft 429 kts 265°
2026-05-06 00:33 29.10086 37.69667 34067 ft 430 kts 265°
2026-05-06 00:33 29.09998 37.62827 34066 ft 430 kts 265°
2026-05-06 00:34 29.09906 37.55978 34071 ft 431 kts 265°
2026-05-06 00:34 29.09812 37.49124 34073 ft 431 kts 265°
2026-05-06 00:35 29.09763 37.42251 34065 ft 432 kts 265°
2026-05-06 00:35 29.09719 37.35377 34067 ft 432 kts 265°
2026-05-06 00:36 29.09666 37.28511 34068 ft 432 kts 265°
2026-05-06 00:36 29.09606 37.21641 34075 ft 432 kts 265°
2026-05-06 00:37 29.09543 37.14766 34064 ft 432 kts 265°
2026-05-06 00:37 29.09477 37.07901 34065 ft 432 kts 265°
2026-05-06 00:38 29.09407 37.01044 34059 ft 432 kts 265°
2026-05-06 00:38 29.09334 36.94171 34065 ft 432 kts 265°
2026-05-06 00:39 29.09258 36.87347 34060 ft 432 kts 265°
2026-05-06 00:39 29.09178 36.80486 34058 ft 431 kts 265°
2026-05-06 00:40 29.09094 36.73630 34081 ft 431 kts 265°
2026-05-06 00:40 29.09006 36.66767 34052 ft 432 kts 265°
2026-05-06 00:41 29.08916 36.59900 34053 ft 431 kts 265°
2026-05-06 00:41 29.08822 36.53049 34056 ft 431 kts 265°
2026-05-06 00:42 29.08721 36.46187 34048 ft 432 kts 265°
2026-05-06 00:42 29.08534 36.39326 34056 ft 432 kts 264°
2026-05-06 00:43 29.08335 36.32458 34062 ft 433 kts 265°
2026-05-06 00:43 29.08142 36.25582 34067 ft 433 kts 265°
2026-05-06 00:44 29.07947 36.18691 34066 ft 434 kts 265°
2026-05-06 00:44 29.07751 36.11824 34075 ft 435 kts 265°
2026-05-06 00:45 29.07549 36.04912 34082 ft 435 kts 265°
2026-05-06 00:45 29.07343 35.97994 34083 ft 435 kts 265°
2026-05-06 00:46 29.07135 35.91082 34085 ft 434 kts 265°
2026-05-06 00:46 29.06923 35.84189 34082 ft 434 kts 265°
2026-05-06 00:47 29.06708 35.77294 34080 ft 433 kts 264°
2026-05-06 00:47 29.06488 35.70404 34070 ft 434 kts 265°
2026-05-06 00:48 29.06266 35.63507 34079 ft 435 kts 265°
2026-05-06 00:48 29.06039 35.56599 34086 ft 435 kts 265°
2026-05-06 00:49 29.05810 35.49689 34099 ft 435 kts 265°
2026-05-06 00:49 29.05576 35.42805 34092 ft 436 kts 265°
2026-05-06 00:50 29.05339 35.35867 34087 ft 436 kts 265°
2026-05-06 00:50 29.05097 35.28929 34088 ft 437 kts 265°
2026-05-06 00:51 29.04851 35.21994 34043 ft 437 kts 265°
2026-05-06 00:51 29.04603 35.15066 34075 ft 436 kts 265°
2026-05-06 00:52 29.04350 35.08141 34067 ft 436 kts 265°
2026-05-06 00:52 29.04096 35.01217 34067 ft 436 kts 265°
2026-05-06 00:53 29.03835 34.94291 34066 ft 437 kts 265°
2026-05-06 00:53 29.03573 34.87344 34056 ft 438 kts 265°
2026-05-06 00:54 29.03358 34.80390 34054 ft 438 kts 266°
2026-05-06 00:54 29.03326 34.73430 34063 ft 439 kts 272°
2026-05-06 00:54 29.03858 34.69982 34049 ft 445 kts 283°
2026-05-06 00:55 29.05048 34.66694 34058 ft 453 kts 294°
2026-05-06 00:55 29.06854 34.63713 34083 ft 460 kts 306°
2026-05-06 00:55 29.09203 34.61178 34057 ft 471 kts 317°
2026-05-06 00:56 29.14995 34.57444 34064 ft 481 kts 326°
2026-05-06 00:56 29.20800 34.53680 34076 ft 478 kts 321°
2026-05-06 00:57 29.26386 34.49553 34089 ft 477 kts 320°
2026-05-06 00:57 29.31925 34.45329 34112 ft 478 kts 320°
2026-05-06 00:58 29.37425 34.41127 34119 ft 478 kts 320°
2026-05-06 00:58 29.42994 34.36873 34119 ft 478 kts 320°
2026-05-06 00:59 29.48539 34.32632 34575 ft 479 kts 320°
2026-05-06 00:59 29.51272 34.30542 34974 ft 478 kts 319°
2026-05-06 00:59 29.54038 34.28424 35340 ft 477 kts 319°
2026-05-06 00:59 29.56799 34.26309 35698 ft 477 kts 319°
2026-05-06 01:00 29.59566 34.24187 36032 ft 478 kts 319°
2026-05-06 01:00 29.65423 34.20451 36113 ft 478 kts 324°
2026-05-06 01:01 29.71305 34.16881 36102 ft 479 kts 324°
2026-05-06 01:01 29.77197 34.13287 36107 ft 479 kts 324°
2026-05-06 01:02 29.83086 34.09694 36098 ft 479 kts 324°
2026-05-06 01:02 29.88977 34.06097 36100 ft 480 kts 324°
2026-05-06 01:03 29.94868 34.02496 36109 ft 479 kts 324°
2026-05-06 01:03 30.00753 33.98892 36108 ft 479 kts 324°
2026-05-06 01:04 30.06634 33.95287 36112 ft 478 kts 324°
2026-05-06 01:04 30.12510 33.91681 36108 ft 478 kts 324°
2026-05-06 01:05 30.18375 33.88075 36104 ft 478 kts 324°
2026-05-06 01:05 30.24205 33.84486 36100 ft 477 kts 324°
2026-05-06 01:06 30.30065 33.80875 36098 ft 477 kts 324°
2026-05-06 01:06 30.35916 33.77263 36092 ft 476 kts 324°
2026-05-06 01:07 30.41609 33.73744 36087 ft 476 kts 324°
2026-05-06 01:07 30.47447 33.70130 36084 ft 477 kts 324°
2026-05-06 01:08 30.53269 33.66522 36103 ft 477 kts 324°
2026-05-06 01:08 30.59112 33.62896 36095 ft 476 kts 324°
2026-05-06 01:09 30.64993 33.59241 36093 ft 476 kts 324°
2026-05-06 01:09 30.70790 33.55633 36088 ft 476 kts 324°
2026-05-06 01:10 30.76627 33.51996 36093 ft 476 kts 325°
2026-05-06 01:10 30.82458 33.48357 36095 ft 475 kts 325°
2026-05-06 01:11 30.88274 33.44723 36080 ft 474 kts 325°
2026-05-06 01:11 30.94073 33.41095 36070 ft 473 kts 325°
2026-05-06 01:12 30.99866 33.37464 36068 ft 473 kts 325°
2026-05-06 01:12 31.05655 33.33830 36081 ft 473 kts 325°
2026-05-06 01:13 31.11447 33.30192 36060 ft 472 kts 325°
2026-05-06 01:13 31.17221 33.26559 36055 ft 472 kts 325°
2026-05-06 01:14 31.25846 33.21121 36048 ft 471 kts 325°
2026-05-06 01:14 31.31620 33.17489 36052 ft 473 kts 327°
2026-05-06 01:15 31.37869 33.14839 36059 ft 485 kts 341°
2026-05-06 01:15 31.43487 33.13935 36064 ft 495 kts 352°
2026-05-06 01:16 31.50374 33.13613 36068 ft 495 kts 351°
2026-05-06 01:16 31.57263 33.13250 36068 ft 496 kts 351°
2026-05-06 01:17 31.64161 33.12898 36069 ft 496 kts 351°
2026-05-06 01:17 31.71051 33.12550 36059 ft 495 kts 351°
2026-05-06 01:18 31.77794 33.11493 36060 ft 481 kts 336°
2026-05-06 01:18 31.83647 33.08049 36064 ft 465 kts 317°
2026-05-06 01:19 31.88219 33.02894 36059 ft 457 kts 308°
2026-05-06 01:19 31.92593 32.97468 36055 ft 457 kts 308°
2026-05-06 01:20 31.96969 32.92034 36057 ft 457 kts 308°
2026-05-06 01:20 32.01334 32.86592 36055 ft 457 kts 309°
2026-05-06 01:21 32.05691 32.81147 36058 ft 457 kts 308°
2026-05-06 01:21 32.10042 32.75702 36055 ft 457 kts 308°
2026-05-06 01:22 32.14399 32.70242 36086 ft 456 kts 308°
2026-05-06 01:22 32.18749 32.64781 36055 ft 456 kts 308°
2026-05-06 01:23 32.23092 32.59322 36053 ft 456 kts 309°
2026-05-06 01:23 32.27426 32.53866 36057 ft 455 kts 309°
2026-05-06 01:24 32.31752 32.48412 36049 ft 454 kts 308°
2026-05-06 01:24 32.36069 32.42961 36047 ft 454 kts 308°
2026-05-06 01:25 32.40383 32.37506 36044 ft 454 kts 308°
2026-05-06 01:25 32.44689 32.32051 36053 ft 453 kts 309°
2026-05-06 01:26 32.48995 32.26590 36050 ft 453 kts 309°
2026-05-06 01:26 32.53267 32.21163 36059 ft 453 kts 309°
2026-05-06 01:27 32.57555 32.15708 36044 ft 452 kts 309°
2026-05-06 01:27 32.61835 32.10256 36039 ft 451 kts 309°
2026-05-06 01:28 32.66318 32.05022 36048 ft 452 kts 313°
2026-05-06 01:28 32.70915 31.99928 36045 ft 451 kts 313°
2026-05-06 01:29 32.75494 31.94837 36041 ft 451 kts 313°
2026-05-06 01:29 32.80066 31.89746 36037 ft 450 kts 313°
2026-05-06 01:30 32.84630 31.84655 36066 ft 450 kts 313°
2026-05-06 01:30 32.89193 31.79559 36049 ft 450 kts 313°
2026-05-06 01:31 32.93742 31.74470 36056 ft 448 kts 313°
2026-05-06 01:31 32.98281 31.69387 36041 ft 447 kts 313°
2026-05-06 01:32 33.02776 31.64344 36034 ft 446 kts 313°
2026-05-06 01:32 33.07288 31.59274 36027 ft 445 kts 313°
2026-05-06 01:33 33.11794 31.54203 36025 ft 445 kts 313°
2026-05-06 01:33 33.16294 31.49132 36034 ft 444 kts 313°
2026-05-06 01:34 33.20787 31.44062 36037 ft 445 kts 313°
2026-05-06 01:34 33.25276 31.38989 36030 ft 444 kts 313°
2026-05-06 01:35 33.29765 31.33909 36029 ft 444 kts 312°
2026-05-06 01:35 33.34244 31.28831 36027 ft 444 kts 312°
2026-05-06 01:36 33.38724 31.23745 36021 ft 443 kts 313°
2026-05-06 01:36 33.43196 31.18660 36030 ft 443 kts 313°
2026-05-06 01:37 33.47661 31.13576 36029 ft 443 kts 313°
2026-05-06 01:37 33.52129 31.08482 36048 ft 443 kts 313°
2026-05-06 01:38 33.56568 31.03411 36034 ft 444 kts 313°
2026-05-06 01:38 33.61033 30.98304 36032 ft 444 kts 312°
2026-05-06 01:39 33.65501 30.93185 36035 ft 444 kts 313°
2026-05-06 01:39 33.69971 30.88058 36033 ft 444 kts 313°
2026-05-06 01:40 33.74434 30.82930 36028 ft 444 kts 313°
2026-05-06 01:40 33.78901 30.77790 36008 ft 444 kts 313°
2026-05-06 01:41 33.83358 30.72653 36009 ft 444 kts 313°
2026-05-06 01:41 33.87818 30.67505 36012 ft 445 kts 313°
2026-05-06 01:42 33.92285 30.62341 36014 ft 445 kts 313°
2026-05-06 01:42 33.96753 30.57168 36026 ft 445 kts 313°
2026-05-06 01:43 34.01214 30.51996 36020 ft 446 kts 313°
2026-05-06 01:43 34.05685 30.46802 36019 ft 446 kts 313°
2026-05-06 01:44 34.10151 30.41608 36028 ft 446 kts 313°
2026-05-06 01:44 34.14613 30.36410 36028 ft 446 kts 313°
2026-05-06 01:45 34.19044 30.31241 36031 ft 446 kts 313°
2026-05-06 01:45 34.23539 30.25988 36016 ft 447 kts 313°
2026-05-06 01:46 34.27975 30.20797 36015 ft 447 kts 313°
2026-05-06 01:46 34.32436 30.15568 36017 ft 447 kts 313°
2026-05-06 01:47 34.36894 30.10333 36017 ft 447 kts 313°
2026-05-06 01:47 34.41354 30.05091 36018 ft 446 kts 313°
2026-05-06 01:48 34.45810 29.99847 36014 ft 446 kts 313°
2026-05-06 01:48 34.50184 29.94515 36012 ft 446 kts 311°
2026-05-06 01:49 34.54513 29.89138 36011 ft 446 kts 312°
2026-05-06 01:49 34.58356 29.84384 36009 ft 446 kts 312°
2026-05-06 01:50 34.62698 29.79020 36021 ft 445 kts 312°
2026-05-06 01:50 34.67035 29.73654 36016 ft 445 kts 312°
2026-05-06 01:51 34.71361 29.68293 36014 ft 444 kts 312°
2026-05-06 01:51 34.75688 29.62922 36010 ft 444 kts 312°
2026-05-06 01:52 34.80006 29.57554 36006 ft 444 kts 312°
2026-05-06 01:52 34.84320 29.52181 36044 ft 444 kts 313°
2026-05-06 01:53 34.88635 29.46800 36010 ft 444 kts 313°
2026-05-06 01:53 34.92951 29.41409 36014 ft 444 kts 313°
2026-05-06 01:54 34.97234 29.36051 36012 ft 444 kts 313°
2026-05-06 01:54 35.01888 29.31093 36009 ft 446 kts 322°
2026-05-06 01:55 35.06871 29.26585 36006 ft 446 kts 321°
2026-05-06 01:55 35.11828 29.22045 36017 ft 445 kts 321°
2026-05-06 01:56 35.16786 29.17507 36027 ft 445 kts 321°
2026-05-06 01:56 35.21742 29.12971 36018 ft 445 kts 321°
2026-05-06 01:57 35.26691 29.08433 36012 ft 444 kts 321°
2026-05-06 01:57 35.31636 29.03892 36008 ft 444 kts 321°
2026-05-06 01:58 35.36576 28.99348 36000 ft 444 kts 321°
2026-05-06 01:58 35.41476 28.94835 36003 ft 443 kts 321°
2026-05-06 01:59 35.46407 28.90285 36019 ft 443 kts 322°
2026-05-06 01:59 35.51322 28.85743 36022 ft 442 kts 321°
2026-05-06 02:00 35.56232 28.81199 36023 ft 441 kts 321°
2026-05-06 02:00 35.61135 28.76654 36020 ft 441 kts 321°
2026-05-06 02:01 35.66036 28.72104 36020 ft 441 kts 321°
2026-05-06 02:01 35.70935 28.67548 35999 ft 441 kts 321°
2026-05-06 02:02 35.75794 28.63022 36041 ft 440 kts 322°
2026-05-06 02:02 35.80675 28.58470 36016 ft 440 kts 322°
2026-05-06 02:03 35.85540 28.53924 36016 ft 438 kts 322°
2026-05-06 02:03 35.90392 28.49384 36013 ft 437 kts 322°
2026-05-06 02:04 35.95237 28.44842 36009 ft 437 kts 322°
2026-05-06 02:04 36.00070 28.40305 36010 ft 436 kts 322°
2026-05-06 02:05 36.04902 28.35761 36011 ft 436 kts 322°
2026-05-06 02:05 36.09723 28.31212 36023 ft 436 kts 322°
2026-05-06 02:06 36.14535 28.26666 36017 ft 435 kts 322°
2026-05-06 02:06 36.19347 28.22112 36017 ft 435 kts 322°
2026-05-06 02:07 36.24122 28.17587 36018 ft 435 kts 322°
2026-05-06 02:07 36.28929 28.13024 36019 ft 435 kts 322°
2026-05-06 02:08 36.33852 28.08663 35993 ft 436 kts 328°
2026-05-06 02:08 36.39293 28.05269 36019 ft 438 kts 334°
2026-05-06 02:09 36.44854 28.02149 36027 ft 438 kts 333°
2026-05-06 02:09 36.50411 27.99012 36028 ft 439 kts 334°
2026-05-06 02:10 36.56041 27.96067 36025 ft 439 kts 335°
2026-05-06 02:10 36.61702 27.93163 36028 ft 440 kts 335°
2026-05-06 02:11 36.67354 27.90228 36029 ft 440 kts 335°
2026-05-06 02:11 36.72959 27.87295 36029 ft 439 kts 335°
2026-05-06 02:12 36.78579 27.84281 36033 ft 439 kts 334°
2026-05-06 02:12 36.84189 27.81263 36036 ft 439 kts 334°
2026-05-06 02:13 36.89800 27.78249 36040 ft 439 kts 334°
2026-05-06 02:13 36.95412 27.75231 36045 ft 439 kts 334°
2026-05-06 02:14 37.01024 27.72209 36054 ft 439 kts 334°
2026-05-06 02:14 37.06629 27.69186 36063 ft 439 kts 334°
2026-05-06 02:15 37.12247 27.66149 36059 ft 440 kts 335°
2026-05-06 02:15 37.17882 27.63099 36068 ft 441 kts 334°
2026-05-06 02:16 37.23488 27.60060 36076 ft 442 kts 334°
2026-05-06 02:16 37.29132 27.56996 36077 ft 442 kts 335°
2026-05-06 02:17 37.34819 27.54005 36078 ft 443 kts 335°
2026-05-06 02:17 37.40510 27.51042 36077 ft 443 kts 335°
2026-05-06 02:18 37.46194 27.48063 36077 ft 443 kts 335°
2026-05-06 02:18 37.51870 27.45059 36089 ft 442 kts 334°
2026-05-06 02:19 37.57448 27.41838 36088 ft 441 kts 333°
2026-05-06 02:19 37.63027 27.38589 36067 ft 441 kts 334°
2026-05-06 02:20 37.71475 27.33947 36063 ft 441 kts 335°
2026-05-06 02:21 37.77120 27.30881 36070 ft 442 kts 335°
2026-05-06 02:21 37.82730 27.27810 36074 ft 442 kts 335°
2026-05-06 02:22 37.88373 27.24711 36059 ft 442 kts 335°
2026-05-06 02:22 37.94022 27.21605 36061 ft 442 kts 335°
2026-05-06 02:23 37.99676 27.18491 36066 ft 443 kts 335°
2026-05-06 02:23 38.05318 27.15379 36065 ft 442 kts 335°
2026-05-06 02:24 38.10975 27.12253 36070 ft 444 kts 335°
2026-05-06 02:24 38.16600 27.09138 36078 ft 444 kts 335°
2026-05-06 02:25 38.22270 27.05995 36083 ft 445 kts 335°
2026-05-06 02:25 38.27929 27.02813 36080 ft 444 kts 332°
2026-05-06 02:26 38.33225 26.98783 36060 ft 444 kts 324°
2026-05-06 02:26 38.37995 26.93780 36058 ft 445 kts 319°
2026-05-06 02:27 38.42690 26.88624 36064 ft 445 kts 320°
2026-05-06 02:27 38.47374 26.83462 36063 ft 445 kts 319°
2026-05-06 02:28 38.52049 26.78282 36063 ft 445 kts 319°
2026-05-06 02:28 38.56721 26.73091 36058 ft 445 kts 319°
2026-05-06 02:29 38.61389 26.67894 36047 ft 446 kts 319°
2026-05-06 02:29 38.66062 26.62684 36052 ft 446 kts 319°
2026-05-06 02:30 38.70739 26.57460 36058 ft 446 kts 319°
2026-05-06 02:30 38.75411 26.52232 36072 ft 445 kts 319°
2026-05-06 02:31 38.80047 26.47035 36067 ft 445 kts 319°
2026-05-06 02:31 38.84711 26.41813 36069 ft 444 kts 320°
2026-05-06 02:32 38.89482 26.36770 36055 ft 445 kts 321°
2026-05-06 02:32 38.94239 26.31765 36062 ft 445 kts 321°
2026-05-06 02:33 38.99010 26.26701 36060 ft 445 kts 321°
2026-05-06 02:33 39.00620 26.24986 36054 ft 445 kts 321°
2026-05-06 02:34 39.08525 26.16549 36070 ft 444 kts 320°
2026-05-06 02:34 39.13277 26.11466 36068 ft 444 kts 320°
2026-05-06 02:35 39.18020 26.06382 36050 ft 444 kts 321°
2026-05-06 02:35 39.22771 26.01283 36056 ft 444 kts 321°
2026-05-06 02:36 39.27517 25.96178 36056 ft 444 kts 320°
2026-05-06 02:36 39.32206 25.91072 36068 ft 443 kts 320°
2026-05-06 02:37 39.36108 25.86700 36061 ft 443 kts 319°
2026-05-06 02:37 39.41518 25.80640 36059 ft 442 kts 320°
2026-05-06 02:38 39.45396 25.76302 36045 ft 443 kts 320°
2026-05-06 02:38 39.50055 25.71085 36046 ft 443 kts 320°
2026-05-06 02:39 39.54710 25.65864 36048 ft 443 kts 320°
2026-05-06 02:39 39.59359 25.60639 36065 ft 442 kts 319°
2026-05-06 02:40 39.64003 25.55410 36063 ft 442 kts 319°
2026-05-06 02:40 39.68641 25.50178 36053 ft 441 kts 319°
2026-05-06 02:41 39.73268 25.44948 36038 ft 441 kts 319°
2026-05-06 02:41 39.77867 25.39740 36043 ft 441 kts 319°
2026-05-06 02:42 39.82490 25.34496 36042 ft 441 kts 319°
2026-05-06 02:42 39.87112 25.29243 36054 ft 441 kts 319°
2026-05-06 02:43 39.91728 25.23989 36049 ft 441 kts 319°
2026-05-06 02:43 39.96310 25.18681 36046 ft 440 kts 319°
2026-05-06 02:44 40.00864 25.13343 36060 ft 440 kts 319°
2026-05-06 02:44 40.05420 25.08010 36045 ft 440 kts 319°
2026-05-06 02:45 40.09976 25.02670 36045 ft 440 kts 319°
2026-05-06 02:45 40.14523 24.97333 36046 ft 439 kts 319°
2026-05-06 02:46 40.19035 24.92026 36044 ft 439 kts 319°
2026-05-06 02:46 40.23565 24.86688 36042 ft 438 kts 319°
2026-05-06 02:47 40.28094 24.81341 36033 ft 439 kts 319°
2026-05-06 02:47 40.32630 24.75976 36037 ft 439 kts 319°
2026-05-06 02:48 40.37162 24.70605 36033 ft 439 kts 319°
2026-05-06 02:48 40.41689 24.65230 36040 ft 439 kts 319°
2026-05-06 02:49 40.46221 24.59839 36038 ft 440 kts 318°
2026-05-06 02:49 40.50752 24.54439 36043 ft 440 kts 318°
2026-05-06 02:50 40.55280 24.49032 36033 ft 440 kts 318°
2026-05-06 02:50 40.59813 24.43609 36036 ft 441 kts 318°
2026-05-06 02:51 40.64347 24.38174 36029 ft 441 kts 318°
2026-05-06 02:51 40.68843 24.32774 36046 ft 440 kts 318°
2026-05-06 02:52 40.73367 24.27330 36048 ft 440 kts 318°
2026-05-06 02:52 40.77887 24.21881 36046 ft 440 kts 318°
2026-05-06 02:53 40.82397 24.16433 36050 ft 440 kts 318°
2026-05-06 02:53 40.86913 24.10968 36042 ft 440 kts 318°
2026-05-06 02:54 40.91421 24.05500 36044 ft 440 kts 318°
2026-05-06 02:54 40.95932 24.00019 36060 ft 441 kts 318°
2026-05-06 02:55 41.00444 23.94528 36061 ft 441 kts 318°
2026-05-06 02:55 41.04953 23.89028 36064 ft 440 kts 317°
2026-05-06 02:56 41.09459 23.83522 36066 ft 440 kts 317°
2026-05-06 02:56 41.13960 23.78011 36057 ft 440 kts 317°
2026-05-06 02:57 41.18452 23.72500 36061 ft 439 kts 317°
2026-05-06 02:57 41.22914 23.67014 36062 ft 440 kts 317°
2026-05-06 02:58 41.27408 23.61478 36065 ft 440 kts 317°
2026-05-06 02:58 41.31904 23.55931 36067 ft 441 kts 317°
2026-05-06 02:59 41.36397 23.50375 36085 ft 441 kts 317°
2026-05-06 02:59 41.41224 23.45338 36072 ft 442 kts 327°
2026-05-06 03:00 41.46641 23.41456 36058 ft 442 kts 333°
2026-05-06 03:00 41.52173 23.37836 36064 ft 443 kts 332°
2026-05-06 03:01 41.57705 23.34203 36070 ft 443 kts 332°
2026-05-06 03:01 41.63252 23.30569 36071 ft 444 kts 332°
2026-05-06 03:02 41.68808 23.26926 36081 ft 445 kts 332°
2026-05-06 03:02 41.74365 23.23275 36079 ft 445 kts 332°
2026-05-06 03:03 41.79928 23.19613 36083 ft 445 kts 332°
2026-05-06 03:03 41.85487 23.15946 36085 ft 445 kts 332°
2026-05-06 03:04 41.91010 23.12296 36078 ft 445 kts 332°
2026-05-06 03:04 41.96570 23.08614 36073 ft 445 kts 332°
2026-05-06 03:05 42.02127 23.04927 36075 ft 445 kts 332°
2026-05-06 03:05 42.07687 23.01230 36072 ft 446 kts 332°
2026-05-06 03:06 42.13255 22.97522 36072 ft 446 kts 332°
2026-05-06 03:06 42.18821 22.93807 36076 ft 447 kts 332°
2026-05-06 03:07 42.24394 22.90079 36084 ft 447 kts 332°
2026-05-06 03:07 42.29976 22.86339 36083 ft 448 kts 332°
2026-05-06 03:08 42.35564 22.82588 36089 ft 448 kts 332°
2026-05-06 03:08 42.41151 22.78829 36095 ft 448 kts 332°
2026-05-06 03:09 42.46744 22.75060 36094 ft 448 kts 332°
2026-05-06 03:09 42.52301 22.71306 36094 ft 448 kts 332°
2026-05-06 03:10 42.57883 22.67529 36092 ft 448 kts 332°
2026-05-06 03:10 42.63460 22.63747 36090 ft 448 kts 332°
2026-05-06 03:11 42.69036 22.59957 36089 ft 448 kts 332°
2026-05-06 03:11 42.74606 22.56164 36077 ft 448 kts 332°
2026-05-06 03:12 42.80144 22.52386 36079 ft 448 kts 332°
2026-05-06 03:12 42.85580 22.48174 36084 ft 446 kts 324°
2026-05-06 03:13 42.90457 22.43049 36076 ft 445 kts 321°
2026-05-06 03:13 42.95340 22.37854 36083 ft 445 kts 321°
2026-05-06 03:14 43.00229 22.32636 36055 ft 447 kts 321°
2026-05-06 03:14 43.05118 22.27389 36077 ft 446 kts 321°
2026-05-06 03:15 43.09999 22.22134 36075 ft 447 kts 321°
2026-05-06 03:15 43.14878 22.16870 36069 ft 446 kts 321°
2026-05-06 03:16 43.19742 22.11611 36073 ft 446 kts 321°
2026-05-06 03:16 43.24627 22.06319 36055 ft 447 kts 320°
2026-05-06 03:17 43.29505 22.01024 36054 ft 447 kts 320°
2026-05-06 03:17 43.34378 21.95722 36051 ft 447 kts 320°
2026-05-06 03:18 43.39242 21.90419 36048 ft 446 kts 320°
2026-05-06 03:18 43.44100 21.85111 36047 ft 446 kts 320°
2026-05-06 03:19 43.48966 21.79784 36031 ft 447 kts 320°
2026-05-06 03:19 43.53842 21.74435 36043 ft 448 kts 320°
2026-05-06 03:20 43.61165 21.66378 36045 ft 449 kts 320°
2026-05-06 03:20 43.66046 21.60994 36061 ft 449 kts 320°
2026-05-06 03:21 43.70889 21.55642 36048 ft 449 kts 320°
2026-05-06 03:21 43.75769 21.50234 36039 ft 450 kts 320°
2026-05-06 03:22 43.80651 21.44815 36040 ft 450 kts 320°
2026-05-06 03:22 43.85529 21.39388 36049 ft 449 kts 320°
2026-05-06 03:23 43.90393 21.33965 36055 ft 448 kts 320°
2026-05-06 03:23 43.95241 21.28548 36053 ft 447 kts 320°
2026-05-06 03:24 44.00090 21.23119 36020 ft 448 kts 320°
2026-05-06 03:24 44.04940 21.17676 36022 ft 448 kts 320°
2026-05-06 03:25 44.09776 21.12238 36047 ft 447 kts 320°
2026-05-06 03:25 44.14606 21.06794 36035 ft 446 kts 320°
2026-05-06 03:26 44.19426 21.01349 36032 ft 446 kts 320°
2026-05-06 03:26 44.23436 20.96810 35998 ft 447 kts 320°
2026-05-06 03:27 44.28267 20.91332 36047 ft 447 kts 319°
2026-05-06 03:27 44.33871 20.84962 36042 ft 447 kts 319°
2026-05-06 03:28 44.37905 20.80366 36037 ft 446 kts 319°
2026-05-06 03:28 44.42714 20.74876 36031 ft 446 kts 319°
2026-05-06 03:29 44.47490 20.69413 35981 ft 447 kts 319°
2026-05-06 03:29 44.52298 20.63901 36015 ft 447 kts 319°
2026-05-06 03:30 44.57104 20.58378 36021 ft 447 kts 319°
2026-05-06 03:30 44.61917 20.52835 36019 ft 447 kts 319°
2026-05-06 03:31 44.66726 20.47285 36019 ft 448 kts 319°
2026-05-06 03:31 44.71529 20.41730 36050 ft 447 kts 319°
2026-05-06 03:32 44.76334 20.36159 36021 ft 448 kts 319°
2026-05-06 03:32 44.81138 20.30577 36020 ft 448 kts 319°
2026-05-06 03:33 44.85939 20.24987 36020 ft 448 kts 319°
2026-05-06 03:33 44.90738 20.19387 36021 ft 447 kts 318°
2026-05-06 03:34 44.95529 20.13782 36021 ft 447 kts 318°
2026-05-06 03:34 45.00317 20.08169 36013 ft 447 kts 318°
2026-05-06 03:35 45.05072 20.02582 36012 ft 447 kts 318°
2026-05-06 03:35 45.09851 19.96955 36009 ft 447 kts 318°
2026-05-06 03:36 45.14626 19.91320 35999 ft 447 kts 318°
2026-05-06 03:36 45.19410 19.85662 36009 ft 447 kts 318°
2026-05-06 03:37 45.24194 19.79998 35997 ft 448 kts 318°
2026-05-06 03:37 45.28872 19.74152 36000 ft 448 kts 317°
2026-05-06 03:38 45.33579 19.68331 35977 ft 449 kts 317°
2026-05-06 03:38 45.38280 19.62487 35989 ft 449 kts 316°
2026-05-06 03:39 45.42982 19.56604 35997 ft 450 kts 316°
2026-05-06 03:39 45.47684 19.50701 35998 ft 451 kts 316°
2026-05-06 03:40 45.52390 19.44781 36002 ft 451 kts 316°
2026-05-06 03:40 45.57062 19.38890 35999 ft 451 kts 316°
2026-05-06 03:41 45.61761 19.32952 35994 ft 451 kts 316°
2026-05-06 03:41 45.66451 19.27011 35990 ft 451 kts 316°
2026-05-06 03:42 45.71139 19.21059 35987 ft 450 kts 316°
2026-05-06 03:42 45.75824 19.15096 35964 ft 451 kts 316°
2026-05-06 03:43 45.80513 19.09114 35968 ft 451 kts 316°
2026-05-06 03:43 45.85202 19.03118 35970 ft 452 kts 316°
2026-05-06 03:44 45.89901 18.97096 35973 ft 453 kts 316°
2026-05-06 03:44 45.94358 18.90723 35978 ft 451 kts 308°
2026-05-06 03:45 45.98271 18.83668 35960 ft 452 kts 307°
2026-05-06 03:45 46.02217 18.76600 35967 ft 453 kts 307°
2026-05-06 03:46 46.06155 18.69506 35976 ft 454 kts 307°
2026-05-06 03:46 46.10057 18.62441 35973 ft 454 kts 307°
2026-05-06 03:47 46.13984 18.55311 35963 ft 454 kts 306°
2026-05-06 03:47 46.17904 18.48174 35965 ft 454 kts 306°
2026-05-06 03:48 46.21828 18.41011 35961 ft 454 kts 306°
2026-05-06 03:48 46.25741 18.33851 35958 ft 454 kts 306°
2026-05-06 03:49 46.29647 18.26686 35955 ft 454 kts 306°
2026-05-06 03:49 46.33552 18.19502 35944 ft 454 kts 306°
2026-05-06 03:50 46.37452 18.12311 35945 ft 454 kts 306°
2026-05-06 03:50 46.41353 18.05098 35944 ft 454 kts 306°
2026-05-06 03:51 46.45246 17.97882 35948 ft 454 kts 305°
2026-05-06 03:51 46.49138 17.90649 35926 ft 455 kts 305°
2026-05-06 03:52 46.53034 17.83388 35929 ft 456 kts 305°
2026-05-06 03:52 46.56935 17.76101 35930 ft 457 kts 305°
2026-05-06 03:53 46.60808 17.68848 35926 ft 457 kts 305°
2026-05-06 03:53 46.64823 17.61638 35909 ft 460 kts 307°
2026-05-06 03:54 46.68934 17.54492 35928 ft 461 kts 307°
2026-05-06 03:54 46.73035 17.47284 35926 ft 461 kts 306°
2026-05-06 03:55 46.77119 17.40056 35916 ft 462 kts 306°
2026-05-06 03:55 46.81194 17.32821 35914 ft 462 kts 306°
2026-05-06 03:56 46.85274 17.25558 35930 ft 462 kts 306°
2026-05-06 03:56 46.89343 17.18298 35931 ft 462 kts 306°
2026-05-06 03:57 46.93407 17.11025 35939 ft 461 kts 306°
2026-05-06 03:57 46.97467 17.03741 35902 ft 462 kts 306°
2026-05-06 03:58 47.01525 16.96440 35895 ft 462 kts 305°
2026-05-06 03:58 47.05582 16.89124 35895 ft 462 kts 305°
2026-05-06 03:59 47.09635 16.81795 35895 ft 463 kts 305°
2026-05-06 03:59 47.13686 16.74449 35896 ft 463 kts 305°
2026-05-06 04:00 47.17706 16.67140 35886 ft 464 kts 304°
2026-05-06 04:00 47.21758 16.59753 35893 ft 464 kts 304°
2026-05-06 04:01 47.25810 16.52346 35899 ft 465 kts 304°
2026-05-06 04:01 47.29868 16.44928 35899 ft 465 kts 305°
2026-05-06 04:02 47.33998 16.37571 35900 ft 466 kts 305°
2026-05-06 04:02 47.38135 16.30214 35908 ft 466 kts 305°
2026-05-06 04:03 47.42255 16.22844 35900 ft 466 kts 305°
2026-05-06 04:03 47.46369 16.15452 35902 ft 465 kts 305°
2026-05-06 04:04 47.50476 16.08050 35898 ft 465 kts 305°
2026-05-06 04:04 47.54576 16.00640 35889 ft 465 kts 304°
2026-05-06 04:05 47.58674 15.93214 35885 ft 465 kts 304°
2026-05-06 04:05 47.62763 15.85783 35890 ft 465 kts 304°
2026-05-06 04:06 47.66827 15.78378 35891 ft 466 kts 304°
2026-05-06 04:06 47.70919 15.70905 35886 ft 467 kts 304°
2026-05-06 04:07 47.75018 15.63394 35916 ft 468 kts 304°
2026-05-06 04:07 47.79112 15.55872 35909 ft 468 kts 304°
2026-05-06 04:08 47.83213 15.48318 35906 ft 469 kts 304°
2026-05-06 04:08 47.87306 15.40757 35881 ft 469 kts 303°
2026-05-06 04:09 47.91391 15.33188 35893 ft 469 kts 303°
2026-05-06 04:09 47.95474 15.25605 35893 ft 469 kts 303°
2026-05-06 04:10 47.99548 15.18014 35885 ft 468 kts 303°
2026-05-06 04:10 48.03611 15.10426 35881 ft 468 kts 303°
2026-05-06 04:11 48.07671 15.02821 35890 ft 468 kts 303°
2026-05-06 04:11 48.11704 14.95244 35880 ft 468 kts 302°
2026-05-06 04:12 48.15758 14.87606 35879 ft 468 kts 302°
2026-05-06 04:12 48.19805 14.79960 35882 ft 468 kts 302°
2026-05-06 04:13 48.23842 14.72310 35882 ft 468 kts 302°
2026-05-06 04:13 48.27888 14.64621 35868 ft 469 kts 302°
2026-05-06 04:14 48.31249 14.58219 35872 ft 470 kts 302°
2026-05-06 04:14 48.35295 14.50492 35868 ft 470 kts 302°
2026-05-06 04:15 48.39339 14.42746 35869 ft 470 kts 302°
2026-05-06 04:15 48.43373 14.34999 35890 ft 470 kts 301°
2026-05-06 04:16 48.47380 14.27276 35864 ft 472 kts 301°
2026-05-06 04:16 48.51418 14.19474 35871 ft 472 kts 301°
2026-05-06 04:17 48.55454 14.11653 35879 ft 472 kts 301°
2026-05-06 04:17 48.59486 14.03819 35880 ft 473 kts 301°
2026-05-06 04:18 48.63519 13.95955 35857 ft 474 kts 301°
2026-05-06 04:18 48.67557 13.88064 35861 ft 474 kts 301°
2026-05-06 04:19 48.71593 13.80151 35862 ft 475 kts 301°
2026-05-06 04:19 48.75630 13.72224 35870 ft 476 kts 301°
2026-05-06 04:20 48.79646 13.64249 35897 ft 476 kts 301°
2026-05-06 04:20 48.83650 13.56203 35854 ft 478 kts 301°
2026-05-06 04:21 48.87659 13.48147 35850 ft 478 kts 301°
2026-05-06 04:21 48.91640 13.40128 35856 ft 479 kts 301°
2026-05-06 04:22 48.95650 13.32028 35859 ft 479 kts 301°
2026-05-06 04:23 49.01667 13.19826 35815 ft 481 kts 302°
2026-05-06 04:23 49.05686 13.11644 35832 ft 483 kts 302°
2026-05-06 04:24 49.09711 13.03426 35848 ft 484 kts 302°
2026-05-06 04:24 49.13736 12.95183 35845 ft 485 kts 301°
2026-05-06 04:25 49.17763 12.86911 35843 ft 485 kts 301°
2026-05-06 04:25 49.21782 12.78631 35837 ft 485 kts 301°
2026-05-06 04:26 49.25796 12.70333 35841 ft 484 kts 301°
2026-05-06 04:26 49.29801 12.62028 35825 ft 485 kts 301°
2026-05-06 04:27 49.33780 12.53685 35835 ft 483 kts 299°
2026-05-06 04:27 49.37404 12.45018 35808 ft 483 kts 298°
2026-05-06 04:28 49.41035 12.36421 35812 ft 484 kts 298°
2026-05-06 04:28 49.44686 12.27724 35815 ft 484 kts 298°
2026-05-06 04:29 49.48325 12.19003 35818 ft 485 kts 298°
2026-05-06 04:29 49.51967 12.10244 35812 ft 485 kts 298°
2026-05-06 04:30 49.55595 12.01488 35804 ft 485 kts 298°
2026-05-06 04:30 49.59217 11.92718 35781 ft 485 kts 298°
2026-05-06 04:31 49.62837 11.83925 35789 ft 486 kts 298°
2026-05-06 04:31 49.66451 11.75115 35806 ft 486 kts 298°
2026-05-06 04:32 49.70065 11.66280 35800 ft 486 kts 298°
2026-05-06 04:32 49.73668 11.57444 35801 ft 486 kts 298°
2026-05-06 04:33 49.77268 11.48580 35798 ft 486 kts 298°
2026-05-06 04:33 49.80831 11.39779 35800 ft 486 kts 298°
2026-05-06 04:34 49.84412 11.30906 35803 ft 486 kts 298°
2026-05-06 04:34 49.87985 11.22020 35805 ft 485 kts 298°
2026-05-06 04:35 49.91550 11.13123 35789 ft 486 kts 298°
2026-05-06 04:35 49.95112 11.04205 35788 ft 486 kts 298°
2026-05-06 04:36 49.98668 10.95272 35798 ft 487 kts 298°
2026-05-06 04:36 50.02222 10.86317 35796 ft 487 kts 298°
2026-05-06 04:37 50.05768 10.77348 35798 ft 487 kts 298°
2026-05-06 04:37 50.09918 10.68969 35800 ft 493 kts 310°
2026-05-06 04:38 50.14663 10.61253 35784 ft 493 kts 310°
2026-05-06 04:38 50.19380 10.53474 35778 ft 494 kts 310°
2026-05-06 04:39 50.24108 10.45682 35780 ft 495 kts 311°
2026-05-06 04:39 50.28886 10.38018 35786 ft 496 kts 311°
2026-05-06 04:40 50.33700 10.30289 35776 ft 496 kts 311°
2026-05-06 04:40 50.38228 10.22193 35775 ft 495 kts 310°
2026-05-06 04:41 50.43041 10.14462 35776 ft 496 kts 311°
2026-05-06 04:41 50.47763 10.06571 35770 ft 496 kts 309°
2026-05-06 04:42 50.52402 9.98561 35771 ft 496 kts 309°
2026-05-06 04:42 50.56971 9.90458 35764 ft 495 kts 307°
2026-05-06 04:43 50.61320 9.82062 35764 ft 494 kts 306°
2026-05-06 04:43 50.65684 9.73679 35746 ft 495 kts 307°
2026-05-06 04:44 50.70073 9.65295 35747 ft 495 kts 307°
2026-05-06 04:44 50.74451 9.56915 35742 ft 495 kts 307°
2026-05-06 04:45 50.78833 9.48522 35743 ft 495 kts 307°
2026-05-06 04:45 50.83203 9.40128 35770 ft 495 kts 307°
2026-05-06 04:46 50.87545 9.31756 35748 ft 494 kts 307°
2026-05-06 04:46 50.91901 9.23329 35744 ft 494 kts 307°
2026-05-06 04:47 50.96245 9.14899 35738 ft 493 kts 307°
2026-05-06 04:47 51.00579 9.06461 35738 ft 493 kts 307°
2026-05-06 04:48 51.04910 8.97999 35739 ft 493 kts 307°
2026-05-06 04:48 51.09237 8.89518 35738 ft 494 kts 307°
2026-05-06 04:49 51.13421 8.80889 35738 ft 492 kts 301°
2026-05-06 04:49 51.16824 8.71446 35738 ft 491 kts 297°
2026-05-06 04:50 51.20162 8.61944 35742 ft 491 kts 297°
2026-05-06 04:50 51.23503 8.52427 35750 ft 492 kts 297°
2026-05-06 04:51 51.26829 8.42884 35754 ft 492 kts 297°
2026-05-06 04:51 51.30149 8.33302 35745 ft 493 kts 297°
2026-05-06 04:52 51.33462 8.23693 35762 ft 494 kts 297°
2026-05-06 04:52 51.36751 8.14123 35772 ft 494 kts 297°
2026-05-06 04:53 51.40059 8.04459 35780 ft 495 kts 297°
2026-05-06 04:53 51.43364 7.94766 35788 ft 496 kts 297°
2026-05-06 04:54 51.46663 7.85053 35791 ft 496 kts 297°
2026-05-06 04:54 51.49972 7.75273 35783 ft 495 kts 297°
2026-05-06 04:55 51.53247 7.65557 35771 ft 495 kts 297°
2026-05-06 04:55 51.56514 7.55828 35770 ft 495 kts 297°
2026-05-06 04:56 51.59756 7.46133 35773 ft 496 kts 297°
2026-05-06 04:56 51.63015 7.36349 35771 ft 497 kts 297°
2026-05-06 04:57 51.66275 7.26524 35785 ft 498 kts 296°
2026-05-06 04:57 51.69533 7.16664 35795 ft 499 kts 296°
2026-05-06 04:58 51.72786 7.06785 35779 ft 499 kts 296°
2026-05-06 04:58 51.76029 6.96894 35797 ft 499 kts 296°
2026-05-06 04:59 51.79271 6.86968 35779 ft 499 kts 296°
2026-05-06 04:59 51.82501 6.77035 35794 ft 498 kts 296°
2026-05-06 05:00 51.85713 6.67120 35813 ft 497 kts 296°
2026-05-06 05:00 51.88376 6.58871 35789 ft 498 kts 295°
2026-05-06 05:01 51.91577 6.48917 35798 ft 498 kts 295°
2026-05-06 05:01 51.94771 6.38943 35804 ft 498 kts 295°
2026-05-06 05:02 51.97948 6.28982 35820 ft 497 kts 295°
2026-05-06 05:02 52.01118 6.19006 35820 ft 496 kts 295°
2026-05-06 05:03 52.04270 6.09042 35837 ft 496 kts 295°
2026-05-06 05:03 52.07413 5.99068 35833 ft 495 kts 295°
2026-05-06 05:04 52.10540 5.89103 35832 ft 494 kts 295°
2026-05-06 05:04 52.13651 5.79147 35843 ft 492 kts 295°
2026-05-06 05:05 52.16741 5.69223 35853 ft 491 kts 295°
2026-05-06 05:05 52.19815 5.59303 35855 ft 490 kts 295°
2026-05-06 05:06 52.22872 5.49401 35853 ft 489 kts 295°
2026-05-06 05:06 52.25920 5.39488 35856 ft 488 kts 295°
2026-05-06 05:07 52.28949 5.29595 35852 ft 487 kts 294°
2026-05-06 05:07 52.31950 5.19754 35847 ft 486 kts 295°
2026-05-06 05:08 52.34954 5.09862 35844 ft 486 kts 294°
2026-05-06 05:08 52.37954 4.99941 35837 ft 485 kts 294°
2026-05-06 05:09 52.40936 4.90046 35851 ft 485 kts 294°
2026-05-06 05:09 52.43909 4.80132 35860 ft 484 kts 294°
2026-05-06 05:10 52.46868 4.70228 35855 ft 483 kts 294°
2026-05-06 05:10 52.49817 4.60313 35857 ft 483 kts 294°
2026-05-06 05:11 52.52756 4.50394 35864 ft 484 kts 294°
2026-05-06 05:11 52.55691 4.40443 35863 ft 484 kts 294°
2026-05-06 05:12 52.58518 4.30825 35890 ft 484 kts 293°
2026-05-06 05:12 52.60941 4.22544 35893 ft 484 kts 293°
2026-05-06 05:13 52.63253 4.14619 35900 ft 485 kts 293°
2026-05-06 05:13 52.65573 4.06640 35906 ft 485 kts 293°
2026-05-06 05:14 52.67780 3.99022 35923 ft 484 kts 293°
2026-05-06 05:14 52.70307 3.90274 35923 ft 484 kts 293°
2026-05-06 05:15 52.72673 3.82052 35909 ft 483 kts 293°
2026-05-06 05:15 52.74966 3.74057 35913 ft 482 kts 293°
2026-05-06 05:16 52.77063 3.66720 35907 ft 482 kts 292°
2026-05-06 05:16 52.79138 3.59436 35911 ft 481 kts 293°
2026-05-06 05:17 52.81202 3.52173 35932 ft 481 kts 292°
2026-05-06 05:17 52.83346 3.44598 35924 ft 481 kts 293°
2026-05-06 05:18 52.85419 3.37257 35918 ft 480 kts 293°
2026-05-06 05:18 52.87479 3.29950 35916 ft 480 kts 293°
2026-05-06 05:19 52.89577 3.22490 35914 ft 479 kts 292°
2026-05-06 05:19 52.91388 3.14866 35914 ft 478 kts 287°
2026-05-06 05:20 52.92721 3.07101 35916 ft 476 kts 281°
2026-05-06 05:20 52.93725 2.99252 35932 ft 476 kts 281°
2026-05-06 05:21 52.94958 2.90053 35931 ft 476 kts 281°
2026-05-06 05:21 52.96376 2.79320 35936 ft 476 kts 280°
2026-05-06 05:22 52.97771 2.68573 35943 ft 476 kts 280°
2026-05-06 05:22 52.99151 2.57828 35952 ft 476 kts 280°
2026-05-06 05:23 53.00518 2.47104 35955 ft 475 kts 280°
2026-05-06 05:23 53.02548 2.31030 35943 ft 473 kts 280°
2026-05-06 05:24 53.03887 2.20327 35942 ft 473 kts 280°
2026-05-06 05:24 53.05205 2.09703 35938 ft 472 kts 280°
2026-05-06 05:25 53.06519 1.99019 35945 ft 472 kts 280°
2026-05-06 05:25 53.07823 1.88351 35941 ft 471 kts 280°
2026-05-06 05:26 53.09118 1.77661 35943 ft 471 kts 279°
2026-05-06 05:26 53.10402 1.66975 35942 ft 471 kts 279°
2026-05-06 05:27 53.11677 1.56283 35949 ft 471 kts 279°
2026-05-06 05:27 53.12941 1.45590 35940 ft 471 kts 279°
2026-05-06 05:28 53.14198 1.34885 35972 ft 470 kts 279°
2026-05-06 05:28 53.15442 1.24187 35954 ft 471 kts 279°
2026-05-06 05:29 53.16677 1.13478 35958 ft 471 kts 279°
2026-05-06 05:29 53.17904 1.02754 35996 ft 470 kts 279°
2026-05-06 05:30 53.19112 0.92107 35998 ft 470 kts 279°
2026-05-06 05:30 53.20318 0.81385 36000 ft 470 kts 279°
2026-05-06 05:31 53.21513 0.70663 36007 ft 470 kts 279°
2026-05-06 05:31 53.22699 0.59940 35969 ft 471 kts 279°
2026-05-06 05:32 53.23878 0.49195 35982 ft 471 kts 279°
2026-05-06 05:32 53.25048 0.38413 35987 ft 472 kts 279°
2026-05-06 05:33 53.26209 0.27628 36005 ft 472 kts 279°
2026-05-06 05:33 53.27362 0.16823 36012 ft 472 kts 279°
2026-05-06 05:34 53.28505 0.06012 36012 ft 472 kts 279°
2026-05-06 05:34 53.29636 -0.04789 36021 ft 472 kts 279°
2026-05-06 05:35 53.30757 -0.15587 36012 ft 471 kts 278°
2026-05-06 05:35 53.31866 -0.26373 36023 ft 470 kts 278°
2026-05-06 05:36 53.32964 -0.37149 36019 ft 470 kts 278°
2026-05-06 05:36 53.34051 -0.47921 36019 ft 469 kts 278°
2026-05-06 05:37 53.35126 -0.58685 36015 ft 469 kts 278°
2026-05-06 05:37 53.36192 -0.69452 36016 ft 469 kts 278°
2026-05-06 05:38 53.37249 -0.80213 36019 ft 468 kts 278°
2026-05-06 05:38 53.38297 -0.90985 36027 ft 469 kts 278°
2026-05-06 05:39 53.39334 -1.01766 36032 ft 469 kts 278°
2026-05-06 05:39 53.40362 -1.12559 36045 ft 469 kts 278°
2026-05-06 05:40 53.41380 -1.23346 36045 ft 469 kts 278°
2026-05-06 05:40 53.42387 -1.34145 36048 ft 468 kts 278°
2026-05-06 05:41 53.43384 -1.44943 36049 ft 468 kts 278°
2026-05-06 05:41 53.44365 -1.55663 36052 ft 468 kts 277°
2026-05-06 05:42 53.45343 -1.66469 36057 ft 468 kts 277°
2026-05-06 05:42 53.46309 -1.77257 36054 ft 467 kts 277°
2026-05-06 05:43 53.47266 -1.88046 36052 ft 467 kts 277°
2026-05-06 05:43 53.48211 -1.98839 36052 ft 467 kts 277°
2026-05-06 05:44 53.49147 -2.09633 36060 ft 467 kts 277°
2026-05-06 05:44 53.50073 -2.20430 36054 ft 466 kts 277°
2026-05-06 05:45 53.50986 -2.31208 36051 ft 466 kts 277°
2026-05-06 05:45 53.51892 -2.41986 36047 ft 466 kts 277°
2026-05-06 05:46 53.52787 -2.52770 36046 ft 466 kts 277°
2026-05-06 05:46 53.53523 -2.61727 36056 ft 465 kts 277°
2026-05-06 05:47 53.54398 -2.72507 36054 ft 465 kts 277°
2026-05-06 05:47 53.55264 -2.83278 36053 ft 465 kts 277°
2026-05-06 05:48 53.56119 -2.94055 36058 ft 464 kts 277°
2026-05-06 05:48 53.56965 -3.04828 36060 ft 464 kts 277°
2026-05-06 05:49 53.57799 -3.15595 36062 ft 464 kts 277°
2026-05-06 05:49 53.58530 -3.25130 36060 ft 464 kts 276°
2026-05-06 05:50 53.59345 -3.35875 36055 ft 464 kts 276°
2026-05-06 05:50 53.60118 -3.46197 36051 ft 464 kts 276°
2026-05-06 05:51 53.60795 -3.55342 36030 ft 464 kts 276°
2026-05-06 05:51 53.61458 -3.64398 36055 ft 464 kts 276°
2026-05-06 05:52 53.61875 -3.73343 36049 ft 464 kts 273°
2026-05-06 05:52 53.62248 -3.82219 36047 ft 464 kts 274°
2026-05-06 05:53 53.62645 -3.91674 36048 ft 464 kts 273°
2026-05-06 05:53 53.63032 -4.01227 36043 ft 464 kts 273°
2026-05-06 05:54 53.63357 -4.09498 36045 ft 464 kts 273°
2026-05-06 05:54 53.63665 -4.17478 36050 ft 464 kts 273°
2026-05-06 05:55 53.64005 -4.26473 36048 ft 464 kts 273°
2026-05-06 05:55 53.64407 -4.37316 36032 ft 463 kts 273°
2026-05-06 05:56 53.64798 -4.48083 36024 ft 463 kts 273°
2026-05-06 05:56 53.65171 -4.58675 36024 ft 463 kts 273°
2026-05-06 05:57 53.65532 -4.69191 36031 ft 463 kts 273°
2026-05-06 05:57 53.65878 -4.79528 36038 ft 463 kts 273°
2026-05-06 05:58 53.66201 -4.89372 36038 ft 464 kts 272°
2026-05-06 05:58 53.66530 -4.99583 36034 ft 464 kts 272°
2026-05-06 05:59 53.66866 -5.10252 36041 ft 464 kts 272°
2026-05-06 05:59 53.67194 -5.21089 36051 ft 464 kts 272°
2026-05-06 06:00 53.67506 -5.31967 36040 ft 464 kts 272°
2026-05-06 06:00 53.67806 -5.42772 36036 ft 464 kts 272°
2026-05-06 06:01 53.68091 -5.53623 36037 ft 464 kts 272°
2026-05-06 06:01 53.68271 -5.64045 36041 ft 464 kts 271°
2026-05-06 06:02 53.68464 -5.74908 36052 ft 464 kts 271°
2026-05-06 06:02 53.68668 -5.85799 36038 ft 464 kts 271°
2026-05-06 06:03 53.68867 -5.96681 36040 ft 464 kts 271°
2026-05-06 06:03 53.69053 -6.07554 36052 ft 464 kts 271°
2026-05-06 06:04 53.69223 -6.18438 36049 ft 464 kts 271°
2026-05-06 06:04 53.69382 -6.29336 36051 ft 464 kts 271°
2026-05-06 06:05 53.69530 -6.40231 36046 ft 464 kts 271°
2026-05-06 06:05 53.69669 -6.51132 36060 ft 465 kts 271°
2026-05-06 06:06 53.69798 -6.62036 36048 ft 465 kts 271°
2026-05-06 06:06 53.69916 -6.72937 36045 ft 465 kts 271°
2026-05-06 06:07 53.70025 -6.83850 36040 ft 465 kts 271°
2026-05-06 06:07 53.70125 -6.94769 36045 ft 466 kts 271°
2026-05-06 06:08 53.70214 -7.05638 36047 ft 466 kts 271°
2026-05-06 06:08 53.70293 -7.16581 36051 ft 467 kts 271°
2026-05-06 06:09 53.70363 -7.27536 36067 ft 467 kts 271°
2026-05-06 06:09 53.70422 -7.38484 36047 ft 467 kts 271°
2026-05-06 06:10 53.70472 -7.49440 36045 ft 467 kts 271°
2026-05-06 06:10 53.70512 -7.60402 36054 ft 467 kts 271°
2026-05-06 06:11 53.70541 -7.71343 36065 ft 467 kts 271°
2026-05-06 06:11 53.70561 -7.82303 36061 ft 467 kts 270°
2026-05-06 06:12 53.70571 -7.93252 36053 ft 466 kts 271°
2026-05-06 06:12 53.70570 -8.04196 36066 ft 466 kts 270°
2026-05-06 06:13 53.70560 -8.15156 36064 ft 467 kts 270°
2026-05-06 06:13 53.70540 -8.26111 36051 ft 467 kts 270°
2026-05-06 06:14 53.70509 -8.37071 36053 ft 467 kts 271°
2026-05-06 06:14 53.70469 -8.48031 36047 ft 467 kts 270°
2026-05-06 06:15 53.70419 -8.58996 36047 ft 467 kts 270°
2026-05-06 06:15 53.70358 -8.69948 36055 ft 467 kts 270°
2026-05-06 06:16 53.70288 -8.80899 36053 ft 467 kts 270°
2026-05-06 06:16 53.70208 -8.91785 36043 ft 467 kts 270°
2026-05-06 06:17 53.70118 -9.02815 36059 ft 467 kts 270°
2026-05-06 06:17 53.70018 -9.13727 36056 ft 468 kts 270°
2026-05-06 06:18 53.69906 -9.24782 36075 ft 468 kts 270°
2026-05-06 06:18 53.69786 -9.35769 36081 ft 468 kts 270°
2026-05-06 06:19 53.69655 -9.46686 36063 ft 469 kts 270°
2026-05-06 06:19 53.69515 -9.57685 36074 ft 469 kts 270°
2026-05-06 06:20 53.69364 -9.68713 36078 ft 470 kts 270°
2026-05-06 06:20 53.69202 -9.79731 36079 ft 470 kts 270°
2026-05-06 06:21 53.69031 -9.90748 36085 ft 470 kts 270°
2026-05-06 06:21 53.68849 -10.01770 36073 ft 470 kts 270°
2026-05-06 06:22 53.68681 -10.11420 36071 ft 470 kts 270°
2026-05-06 06:22 53.68512 -10.20749 36073 ft 471 kts 270°
2026-05-06 06:23 53.68356 -10.29031 36073 ft 471 kts 270°
2026-05-06 06:23 53.68190 -10.37501 36074 ft 471 kts 270°
2026-05-06 06:24 53.68007 -10.46517 36075 ft 471 kts 270°
2026-05-06 06:24 53.67829 -10.54967 36069 ft 472 kts 270°
2026-05-06 06:25 53.67652 -10.63099 36074 ft 472 kts 270°
2026-05-06 06:26 53.67360 -10.76035 36076 ft 473 kts 270°
2026-05-06 06:26 53.67162 -10.84455 36079 ft 473 kts 270°
2026-05-06 06:27 53.66959 -10.92840 36081 ft 474 kts 270°
2026-05-06 06:27 53.66755 -11.01033 36081 ft 474 kts 270°
2026-05-06 06:28 53.66542 -11.09365 36080 ft 474 kts 270°
2026-05-06 06:28 53.66329 -11.17469 36080 ft 474 kts 270°
2026-05-06 06:29 53.66109 -11.25619 36079 ft 474 kts 270°
2026-05-06 06:29 53.65883 -11.33795 36077 ft 474 kts 270°
2026-05-06 06:30 53.65615 -11.43271 36078 ft 473 kts 270°
2026-05-06 06:30 53.65293 -11.54289 36064 ft 473 kts 270°
2026-05-06 06:31 53.64965 -11.65155 36066 ft 474 kts 270°
2026-05-06 06:31 53.64725 -11.72913 36070 ft 475 kts 270°
2026-05-06 06:32 53.64462 -11.81260 36071 ft 475 kts 270°
2026-05-06 06:32 53.64196 -11.89481 36074 ft 475 kts 269°
2026-05-06 06:33 53.63929 -11.97573 36078 ft 476 kts 269°
2026-05-06 06:33 53.63614 -12.06925 36073 ft 476 kts 270°
2026-05-06 06:34 53.63241 -12.17710 36083 ft 476 kts 270°
2026-05-06 06:34 53.62902 -12.27287 36083 ft 477 kts 270°
2026-05-06 06:35 53.62570 -12.36434 36084 ft 477 kts 270°
2026-05-06 06:35 53.62242 -12.45310 36081 ft 476 kts 270°
2026-05-06 06:36 53.61903 -12.54321 36055 ft 476 kts 270°
2026-05-06 06:36 53.61566 -12.63076 36072 ft 476 kts 270°
2026-05-06 06:37 53.61220 -12.71908 36072 ft 476 kts 270°
2026-05-06 06:37 53.60841 -12.81400 36077 ft 477 kts 270°
2026-05-06 06:38 53.60467 -12.90577 36079 ft 477 kts 270°
2026-05-06 06:38 53.60101 -12.99402 36080 ft 477 kts 269°
2026-05-06 06:39 53.59733 -13.08097 36066 ft 477 kts 270°
2026-05-06 06:39 53.59361 -13.16769 36079 ft 477 kts 269°
2026-05-06 06:40 53.58947 -13.26227 36084 ft 477 kts 269°
2026-05-06 06:40 53.58450 -13.37366 36084 ft 477 kts 269°
2026-05-06 06:41 53.57989 -13.47493 36084 ft 477 kts 269°
2026-05-06 06:41 53.57564 -13.56685 36083 ft 477 kts 269°
2026-05-06 06:42 53.57144 -13.65592 36072 ft 477 kts 269°
2026-05-06 06:42 53.56711 -13.74654 36074 ft 477 kts 269°
2026-05-06 06:43 53.56271 -13.83706 36079 ft 477 kts 269°
2026-05-06 06:43 53.55818 -13.92873 36080 ft 478 kts 269°
2026-05-06 06:44 53.55351 -14.02194 36093 ft 478 kts 269°
2026-05-06 06:44 53.54900 -14.11052 36068 ft 478 kts 269°
2026-05-06 06:45 53.54464 -14.19491 36086 ft 478 kts 269°
2026-05-06 06:45 53.53913 -14.29992 36085 ft 478 kts 269°
2026-05-06 06:46 53.53319 -14.41118 36087 ft 478 kts 269°
2026-05-06 06:46 53.52718 -14.52188 36091 ft 478 kts 269°
2026-05-06 06:47 53.52105 -14.63301 36067 ft 478 kts 269°
2026-05-06 06:47 53.51551 -14.73302 36081 ft 478 kts 269°
2026-05-06 06:48 53.51037 -14.82482 36087 ft 478 kts 269°
2026-05-06 06:48 53.50573 -14.90651 36088 ft 478 kts 268°
2026-05-06 06:49 53.50108 -14.98741 36088 ft 479 kts 268°
2026-05-06 06:49 53.49871 -15.06883 36087 ft 474 kts 276°
2026-05-06 06:50 53.50131 -15.14977 36069 ft 473 kts 277°
2026-05-06 06:50 53.50406 -15.23220 36083 ft 474 kts 276°
2026-05-06 06:51 53.50631 -15.32546 36084 ft 474 kts 276°
2026-05-06 06:51 53.50799 -15.41467 36110 ft 474 kts 276°
2026-05-06 06:52 53.50961 -15.51078 36105 ft 474 kts 275°
2026-05-06 06:52 53.51121 -15.61002 36088 ft 473 kts 275°
2026-05-06 06:53 53.51261 -15.70122 36093 ft 473 kts 275°
2026-05-06 06:53 53.51420 -15.81061 36088 ft 472 kts 275°
2026-05-06 06:54 53.51571 -15.92106 36084 ft 472 kts 275°
2026-05-06 06:54 53.51711 -16.03131 36083 ft 472 kts 275°
2026-05-06 06:55 53.51841 -16.14160 36085 ft 472 kts 275°
2026-05-06 06:55 53.51961 -16.25175 36088 ft 472 kts 275°
2026-05-06 06:56 53.52070 -16.36138 36080 ft 472 kts 275°
2026-05-06 06:56 53.52170 -16.47173 36076 ft 472 kts 275°
2026-05-06 06:57 53.52259 -16.58191 36066 ft 472 kts 275°
2026-05-06 06:57 53.52339 -16.69210 36068 ft 472 kts 275°
2026-05-06 06:58 53.52408 -16.80237 36064 ft 472 kts 274°
2026-05-06 06:58 53.52465 -16.90762 36080 ft 473 kts 274°
2026-05-06 06:59 53.52514 -17.01746 36080 ft 473 kts 274°
2026-05-06 06:59 53.52553 -17.12800 36096 ft 473 kts 274°
2026-05-06 07:00 53.52582 -17.23849 36095 ft 472 kts 274°
2026-05-06 07:00 53.52601 -17.34892 36085 ft 472 kts 274°
2026-05-06 07:01 53.52610 -17.45913 36084 ft 472 kts 274°
2026-05-06 07:01 53.52609 -17.56955 36082 ft 471 kts 274°
2026-05-06 07:02 53.52597 -17.67965 36082 ft 471 kts 274°
2026-05-06 07:02 53.52576 -17.78977 36081 ft 471 kts 274°
2026-05-06 07:03 53.52544 -17.89990 36076 ft 471 kts 273°
2026-05-06 07:03 53.52502 -18.00939 36073 ft 471 kts 273°
2026-05-06 07:04 53.52451 -18.11956 36079 ft 472 kts 273°
2026-05-06 07:04 53.52389 -18.22976 36085 ft 472 kts 273°
2026-05-06 07:05 53.52316 -18.34012 36079 ft 472 kts 273°
2026-05-06 07:05 53.52234 -18.45056 36082 ft 472 kts 272°
2026-05-06 07:06 53.52141 -18.56090 36097 ft 472 kts 272°
2026-05-06 07:06 53.52038 -18.67133 36097 ft 472 kts 272°
2026-05-06 07:07 53.51925 -18.78164 36098 ft 472 kts 272°
2026-05-06 07:07 53.51802 -18.89189 36105 ft 472 kts 272°
2026-05-06 07:08 53.51669 -19.00215 36092 ft 471 kts 272°
2026-05-06 07:08 53.51526 -19.11217 36091 ft 471 kts 271°
2026-05-06 07:09 53.51373 -19.22210 36086 ft 471 kts 271°
2026-05-06 07:09 53.51210 -19.33192 36083 ft 470 kts 271°
2026-05-06 07:10 53.51037 -19.44173 36081 ft 470 kts 271°
2026-05-06 07:10 53.50856 -19.55083 36076 ft 470 kts 271°
2026-05-06 07:11 53.50663 -19.66051 36084 ft 470 kts 271°
2026-05-06 07:11 53.50460 -19.77019 36084 ft 470 kts 271°
2026-05-06 07:12 53.50250 -19.87999 36083 ft 470 kts 271°
2026-05-06 07:12 53.50017 -19.98984 36083 ft 471 kts 269°
2026-05-06 07:13 53.49390 -20.09967 36081 ft 472 kts 266°
2026-05-06 07:13 53.48755 -20.20937 36084 ft 472 kts 267°
2026-05-06 07:14 53.48131 -20.31882 36087 ft 473 kts 267°
2026-05-06 07:14 53.47492 -20.42816 36085 ft 473 kts 267°
2026-05-06 07:15 53.46837 -20.53815 36093 ft 473 kts 266°
2026-05-06 07:15 53.46170 -20.64790 36091 ft 473 kts 266°
2026-05-06 07:16 53.45485 -20.75789 36100 ft 473 kts 266°
2026-05-06 07:16 53.44792 -20.86741 36098 ft 473 kts 266°
2026-05-06 07:17 53.44088 -20.97699 36099 ft 473 kts 266°
2026-05-06 07:17 53.43496 -21.06802 36098 ft 472 kts 265°
2026-05-06 07:18 53.42776 -21.17710 36091 ft 472 kts 265°
2026-05-06 07:18 53.42046 -21.28630 36088 ft 472 kts 265°
2026-05-06 07:19 53.41307 -21.39521 36091 ft 472 kts 265°
2026-05-06 07:19 53.40568 -21.50270 36095 ft 472 kts 265°
2026-05-06 07:20 53.39832 -21.60845 36092 ft 472 kts 265°
2026-05-06 07:20 53.39080 -21.71506 36096 ft 473 kts 265°
2026-05-06 07:21 53.38319 -21.82144 36099 ft 473 kts 265°
2026-05-06 07:21 53.37549 -21.92785 36101 ft 473 kts 264°
2026-05-06 07:22 53.36776 -22.03332 36100 ft 473 kts 264°
2026-05-06 07:22 53.35989 -22.13940 36091 ft 473 kts 264°
2026-05-06 07:23 53.35182 -22.24678 36096 ft 473 kts 264°
2026-05-06 07:23 53.34364 -22.35434 36101 ft 473 kts 264°
2026-05-06 07:24 53.33532 -22.46241 36102 ft 473 kts 264°
2026-05-06 07:24 53.32683 -22.57131 36105 ft 473 kts 264°
2026-05-06 07:25 53.31830 -22.67951 36095 ft 473 kts 263°
2026-05-06 07:25 53.30965 -22.78786 36101 ft 474 kts 263°
2026-05-06 07:26 53.30091 -22.89616 36112 ft 474 kts 263°
2026-05-06 07:26 53.29210 -23.00401 36112 ft 474 kts 263°
2026-05-06 07:27 53.28311 -23.11273 36114 ft 474 kts 263°
2026-05-06 07:27 53.27411 -23.22049 36113 ft 474 kts 262°
2026-05-06 07:28 53.26526 -23.32518 36112 ft 474 kts 262°
2026-05-06 07:28 53.25203 -23.47980 36108 ft 473 kts 262°
2026-05-06 07:29 53.24302 -23.58365 36113 ft 473 kts 262°
2026-05-06 07:29 53.23400 -23.68659 36107 ft 473 kts 262°
2026-05-06 07:30 53.22493 -23.78898 36114 ft 473 kts 262°
2026-05-06 07:30 53.21568 -23.89241 36114 ft 473 kts 262°
2026-05-06 07:31 53.20627 -23.99651 36110 ft 473 kts 262°
2026-05-06 07:31 53.19686 -24.09965 36116 ft 473 kts 261°
2026-05-06 07:32 53.18698 -24.20686 36113 ft 474 kts 261°
2026-05-06 07:32 53.17686 -24.31553 36108 ft 475 kts 261°
2026-05-06 07:33 53.16662 -24.42437 36115 ft 476 kts 261°
2026-05-06 07:33 53.15634 -24.53253 36121 ft 476 kts 261°
2026-05-06 07:34 53.14588 -24.64154 36124 ft 477 kts 261°
2026-05-06 07:34 53.13531 -24.75055 36112 ft 477 kts 260°
2026-05-06 07:35 53.12463 -24.85960 36119 ft 478 kts 260°
2026-05-06 07:35 53.11387 -24.96844 36123 ft 478 kts 260°
2026-05-06 07:36 53.10310 -25.07631 36134 ft 478 kts 260°
2026-05-06 07:36 53.09226 -25.18385 36127 ft 478 kts 260°
2026-05-06 07:37 53.08153 -25.28942 36119 ft 479 kts 259°
2026-05-06 07:37 53.07040 -25.39781 36123 ft 479 kts 259°
2026-05-06 07:38 53.05924 -25.50554 36123 ft 479 kts 259°
2026-05-06 07:38 53.04800 -25.61296 36123 ft 479 kts 259°
2026-05-06 07:39 53.03663 -25.72072 36121 ft 479 kts 259°
2026-05-06 07:39 53.02519 -25.82812 36121 ft 479 kts 258°
2026-05-06 07:40 53.01372 -25.93487 36123 ft 479 kts 258°
2026-05-06 07:40 53.00193 -26.04354 36120 ft 479 kts 258°
2026-05-06 07:41 52.99021 -26.15067 36120 ft 479 kts 258°
2026-05-06 07:41 52.97835 -26.25824 36124 ft 479 kts 258°
2026-05-06 07:42 52.96639 -26.36564 36125 ft 479 kts 258°
2026-05-06 07:42 52.95437 -26.47274 36122 ft 479 kts 258°
2026-05-06 07:43 52.94232 -26.57920 36122 ft 479 kts 258°
2026-05-06 07:43 52.93000 -26.68703 36120 ft 479 kts 257°
2026-05-06 07:44 52.91785 -26.79256 36116 ft 478 kts 257°
2026-05-06 07:44 52.90539 -26.89987 36116 ft 478 kts 257°
2026-05-06 07:45 52.89287 -27.00678 36115 ft 478 kts 257°
2026-05-06 07:45 52.88036 -27.11273 36108 ft 478 kts 257°
2026-05-06 07:46 52.86780 -27.21832 36111 ft 478 kts 257°
2026-05-06 07:46 52.85504 -27.32472 36112 ft 478 kts 257°
2026-05-06 07:47 52.84205 -27.43209 36111 ft 479 kts 257°
2026-05-06 07:47 52.82908 -27.53853 36107 ft 478 kts 257°
2026-05-06 07:48 52.81615 -27.64374 36104 ft 478 kts 257°
2026-05-06 07:48 52.80289 -27.75081 36111 ft 478 kts 257°
2026-05-06 07:49 52.78979 -27.85577 36106 ft 478 kts 257°
2026-05-06 07:49 52.77642 -27.96210 36101 ft 478 kts 257°
2026-05-06 07:50 52.76346 -28.06439 36100 ft 477 kts 257°
2026-05-06 07:50 52.74975 -28.17177 36097 ft 477 kts 257°
2026-05-06 07:51 52.73600 -28.27865 36094 ft 477 kts 256°
2026-05-06 07:51 52.72212 -28.38578 36096 ft 477 kts 256°
2026-05-06 07:52 52.70816 -28.49264 36085 ft 477 kts 256°
2026-05-06 07:52 52.69415 -28.59910 36083 ft 477 kts 256°
2026-05-06 07:53 52.68000 -28.70577 36082 ft 477 kts 256°
2026-05-06 07:53 52.66583 -28.81189 36084 ft 477 kts 256°
2026-05-06 07:54 52.65155 -28.91805 36073 ft 477 kts 256°
2026-05-06 07:54 52.63720 -29.02393 36072 ft 477 kts 256°
2026-05-06 07:55 52.62267 -29.13037 36071 ft 476 kts 256°
2026-05-06 07:55 52.60819 -29.23567 36072 ft 476 kts 256°
2026-05-06 07:56 52.59358 -29.34118 36043 ft 477 kts 256°
2026-05-06 07:56 52.57890 -29.44649 36046 ft 477 kts 255°
2026-05-06 07:57 52.56401 -29.55249 36042 ft 476 kts 255°
2026-05-06 07:57 52.54905 -29.65860 36044 ft 476 kts 255°
2026-05-06 07:58 52.53407 -29.76444 36048 ft 477 kts 256°
2026-05-06 07:58 52.51896 -29.87052 36048 ft 476 kts 255°
2026-05-06 07:59 52.50376 -29.97643 36046 ft 476 kts 255°
2026-05-06 07:59 52.49234 -30.08286 36042 ft 478 kts 264°
2026-05-06 08:00 52.48782 -30.19174 36043 ft 478 kts 264°
2026-05-06 08:00 52.48243 -30.30036 36042 ft 478 kts 263°
2026-05-06 08:01 52.47622 -30.40908 36036 ft 478 kts 263°
2026-05-06 08:01 52.46979 -30.51762 36042 ft 478 kts 263°
2026-05-06 08:02 52.46324 -30.62625 36039 ft 479 kts 263°
2026-05-06 08:02 52.45654 -30.73476 36049 ft 479 kts 263°
2026-05-06 08:03 52.44972 -30.84336 36058 ft 478 kts 263°
2026-05-06 08:03 52.44281 -30.95174 36077 ft 477 kts 262°
2026-05-06 08:04 52.43700 -31.04163 36060 ft 477 kts 262°
2026-05-06 08:04 52.42993 -31.14971 36062 ft 477 kts 262°
2026-05-06 08:05 52.42276 -31.25762 36059 ft 476 kts 262°
2026-05-06 08:05 52.41552 -31.36528 36071 ft 476 kts 262°
2026-05-06 08:06 52.40818 -31.47294 36091 ft 474 kts 262°
2026-05-06 08:06 52.40074 -31.58037 36063 ft 475 kts 262°
2026-05-06 08:07 52.39322 -31.68763 36068 ft 474 kts 262°
2026-05-06 08:07 52.38559 -31.79499 36068 ft 474 kts 261°
2026-05-06 08:08 52.37789 -31.90205 36063 ft 474 kts 262°
2026-05-06 08:08 52.37009 -32.00903 36098 ft 473 kts 262°
2026-05-06 08:09 52.36225 -32.11527 36071 ft 474 kts 261°
2026-05-06 08:09 52.35423 -32.22247 36070 ft 474 kts 261°
2026-05-06 08:10 52.34612 -32.32963 36081 ft 474 kts 261°
2026-05-06 08:10 52.33792 -32.43668 36087 ft 475 kts 262°
2026-05-06 08:11 52.32962 -32.54370 36091 ft 475 kts 262°
2026-05-06 08:11 52.32120 -32.65097 36090 ft 475 kts 262°
2026-05-06 08:12 52.31268 -32.75821 36095 ft 475 kts 262°
2026-05-06 08:12 52.30408 -32.86536 36118 ft 475 kts 261°
2026-05-06 08:13 52.29536 -32.97260 36093 ft 476 kts 261°
2026-05-06 08:13 52.28653 -33.07993 36110 ft 477 kts 261°
2026-05-06 08:14 52.27760 -33.18730 36113 ft 477 kts 261°
2026-05-06 08:14 52.26864 -33.29382 36107 ft 478 kts 261°
2026-05-06 08:15 52.25950 -33.40131 36116 ft 479 kts 261°
2026-05-06 08:15 52.25024 -33.50898 36111 ft 479 kts 261°
2026-05-06 08:16 52.24089 -33.61663 36118 ft 480 kts 261°
2026-05-06 08:16 52.23141 -33.72443 36123 ft 480 kts 261°
2026-05-06 08:17 52.22184 -33.83218 36122 ft 480 kts 261°
2026-05-06 08:17 52.21217 -33.93993 36126 ft 480 kts 261°
2026-05-06 08:18 52.20240 -34.04756 36134 ft 480 kts 261°
2026-05-06 08:18 52.19253 -34.15523 36135 ft 480 kts 261°
2026-05-06 08:19 52.18256 -34.26284 36134 ft 480 kts 261°
2026-05-06 08:19 52.17251 -34.37026 36136 ft 480 kts 261°
2026-05-06 08:20 52.16236 -34.47763 36137 ft 480 kts 261°
2026-05-06 08:20 52.15211 -34.58499 36121 ft 480 kts 261°
2026-05-06 08:21 52.14176 -34.69231 36133 ft 480 kts 261°
2026-05-06 08:21 52.13130 -34.79970 36133 ft 480 kts 261°
2026-05-06 08:22 52.12076 -34.90692 36133 ft 480 kts 261°
2026-05-06 08:22 52.11011 -35.01419 36127 ft 480 kts 261°
2026-05-06 08:23 52.09943 -35.12064 36138 ft 479 kts 261°
2026-05-06 08:23 52.08863 -35.22743 36130 ft 479 kts 261°
2026-05-06 08:24 52.07770 -35.33440 36141 ft 479 kts 261°
2026-05-06 08:24 52.06669 -35.44116 36126 ft 479 kts 261°
2026-05-06 08:25 52.05560 -35.54778 36138 ft 478 kts 261°
2026-05-06 08:25 52.04441 -35.65428 36136 ft 478 kts 261°
2026-05-06 08:26 52.03317 -35.76043 36132 ft 478 kts 261°
2026-05-06 08:26 52.02181 -35.86668 36124 ft 478 kts 261°
2026-05-06 08:27 52.01035 -35.97292 36135 ft 477 kts 261°
2026-05-06 08:27 51.99887 -36.07836 36129 ft 477 kts 261°
2026-05-06 08:28 51.98723 -36.18441 36132 ft 477 kts 261°
2026-05-06 08:28 51.97552 -36.29017 36129 ft 477 kts 260°
2026-05-06 08:29 51.96371 -36.39592 36132 ft 477 kts 260°
2026-05-06 08:29 51.95179 -36.50171 36131 ft 477 kts 260°
2026-05-06 08:30 51.93977 -36.60750 36122 ft 477 kts 260°
2026-05-06 08:30 51.92769 -36.71302 36128 ft 476 kts 260°
2026-05-06 08:31 51.91551 -36.81840 36125 ft 476 kts 260°
2026-05-06 08:31 51.90322 -36.92396 36133 ft 476 kts 260°
2026-05-06 08:32 51.89087 -37.02914 36116 ft 476 kts 260°
2026-05-06 08:32 51.87840 -37.13450 36116 ft 477 kts 260°
2026-05-06 08:33 51.86584 -37.23975 36117 ft 477 kts 260°
2026-05-06 08:33 51.85325 -37.34434 36118 ft 477 kts 260°
2026-05-06 08:34 51.83409 -37.50208 36118 ft 477 kts 260°
2026-05-06 08:35 51.82122 -37.60698 36119 ft 477 kts 259°
2026-05-06 08:35 51.80824 -37.71195 36137 ft 476 kts 260°
2026-05-06 08:36 51.79516 -37.81695 36137 ft 476 kts 259°
2026-05-06 08:36 51.78198 -37.92182 36131 ft 476 kts 259°
2026-05-06 08:37 51.76872 -38.02667 36126 ft 476 kts 259°
2026-05-06 08:37 51.75537 -38.13136 36124 ft 476 kts 259°
2026-05-06 08:38 51.74194 -38.23590 36139 ft 476 kts 259°
2026-05-06 08:38 51.72841 -38.34043 36138 ft 476 kts 259°
2026-05-06 08:39 51.71479 -38.44488 36142 ft 476 kts 259°
2026-05-06 08:39 51.70118 -38.54847 36136 ft 475 kts 259°
2026-05-06 08:40 51.68739 -38.65271 36126 ft 475 kts 259°
2026-05-06 08:40 51.67352 -38.75675 36142 ft 475 kts 259°
2026-05-06 08:41 51.65958 -38.86056 36140 ft 474 kts 259°
2026-05-06 08:41 51.64554 -38.96439 36143 ft 474 kts 259°
2026-05-06 08:42 51.63143 -39.06805 36141 ft 474 kts 259°
2026-05-06 08:42 51.61723 -39.17151 36142 ft 474 kts 259°
2026-05-06 08:43 51.60294 -39.27498 36151 ft 473 kts 259°
2026-05-06 08:43 51.58858 -39.37829 36148 ft 473 kts 259°
2026-05-06 08:44 51.57415 -39.48136 36147 ft 473 kts 259°
2026-05-06 08:44 51.55962 -39.58445 36141 ft 473 kts 259°
2026-05-06 08:45 51.54505 -39.68743 36149 ft 472 kts 259°
2026-05-06 08:45 51.53046 -39.79012 36147 ft 471 kts 259°
2026-05-06 08:46 51.51579 -39.89275 36150 ft 471 kts 259°
2026-05-06 08:46 51.50104 -39.99527 36149 ft 471 kts 259°
2026-05-06 08:47 51.49178 -40.09868 36144 ft 468 kts 268°
2026-05-06 08:47 51.48756 -40.20202 36147 ft 467 kts 268°
2026-05-06 08:48 51.48225 -40.30587 36148 ft 466 kts 267°
2026-05-06 08:48 51.47631 -40.40945 36149 ft 466 kts 267°
2026-05-06 08:49 51.47021 -40.51284 36148 ft 466 kts 267°
2026-05-06 08:49 51.46400 -40.61628 36139 ft 466 kts 267°
2026-05-06 08:50 51.45766 -40.71962 36138 ft 465 kts 266°
2026-05-06 08:50 51.45122 -40.82271 36143 ft 464 kts 267°
2026-05-06 08:51 51.44581 -40.90827 36142 ft 464 kts 267°
2026-05-06 08:51 51.43922 -41.01115 36136 ft 464 kts 267°
2026-05-06 08:52 51.43254 -41.11399 36139 ft 463 kts 267°
2026-05-06 08:52 51.42578 -41.21679 36123 ft 463 kts 267°
2026-05-06 08:53 51.41893 -41.31939 36103 ft 463 kts 267°
2026-05-06 08:53 51.41200 -41.42173 36142 ft 462 kts 267°
2026-05-06 08:54 51.40500 -41.52396 36133 ft 461 kts 267°
2026-05-06 08:54 51.39796 -41.62536 36129 ft 461 kts 267°
2026-05-06 08:55 51.39079 -41.72738 36128 ft 461 kts 267°
2026-05-06 08:55 51.38353 -41.82941 36125 ft 461 kts 267°
2026-05-06 08:56 51.37619 -41.93124 36128 ft 460 kts 267°
2026-05-06 08:56 51.36878 -42.03281 36132 ft 459 kts 267°
2026-05-06 08:57 51.36128 -42.13428 36140 ft 459 kts 267°
2026-05-06 08:57 51.35371 -42.23559 36132 ft 459 kts 267°
2026-05-06 08:58 51.34606 -42.33680 36125 ft 458 kts 267°
2026-05-06 08:58 51.33831 -42.43800 36125 ft 458 kts 266°
2026-05-06 08:59 51.33050 -42.53896 36126 ft 458 kts 266°
2026-05-06 08:59 51.32259 -42.63999 36120 ft 458 kts 266°
2026-05-06 09:00 51.31460 -42.74087 36122 ft 457 kts 266°
2026-05-06 09:00 51.30653 -42.84172 36124 ft 457 kts 266°
2026-05-06 09:01 51.29837 -42.94245 36123 ft 457 kts 266°
2026-05-06 09:01 51.29013 -43.04311 36144 ft 455 kts 267°
2026-05-06 09:02 51.28184 -43.14334 36143 ft 455 kts 267°
2026-05-06 09:02 51.27353 -43.24273 36142 ft 454 kts 267°
2026-05-06 09:03 51.26509 -43.34266 36139 ft 454 kts 267°
2026-05-06 09:03 51.25657 -43.44249 36134 ft 453 kts 267°
2026-05-06 09:04 51.24799 -43.54202 36130 ft 453 kts 267°
2026-05-06 09:04 51.23932 -43.64140 36141 ft 451 kts 267°
2026-05-06 09:05 51.23061 -43.74050 36136 ft 450 kts 267°
2026-05-06 09:05 51.22182 -43.83941 36138 ft 450 kts 267°
2026-05-06 09:06 51.21297 -43.93808 36138 ft 449 kts 267°
2026-05-06 09:06 51.20403 -44.03665 36133 ft 449 kts 267°
2026-05-06 09:07 51.19502 -44.13512 36123 ft 448 kts 266°
2026-05-06 09:07 51.18594 -44.23337 36125 ft 448 kts 266°
2026-05-06 09:08 51.17680 -44.33141 36120 ft 447 kts 266°
2026-05-06 09:08 51.16764 -44.42879 36123 ft 447 kts 266°
2026-05-06 09:09 51.15832 -44.52687 36122 ft 447 kts 266°
2026-05-06 09:09 51.14893 -44.62487 36119 ft 447 kts 266°
2026-05-06 09:10 51.13946 -44.72274 36125 ft 446 kts 266°
2026-05-06 09:10 51.12992 -44.82040 36125 ft 446 kts 266°
2026-05-06 09:11 51.12032 -44.91791 36122 ft 446 kts 266°
2026-05-06 09:11 51.11062 -45.01553 36123 ft 446 kts 266°
2026-05-06 09:12 51.10085 -45.11296 36127 ft 446 kts 266°
2026-05-06 09:12 51.09100 -45.21045 36117 ft 446 kts 266°
2026-05-06 09:13 51.08107 -45.30771 36123 ft 445 kts 266°
2026-05-06 09:13 51.07108 -45.40489 36123 ft 445 kts 266°
2026-05-06 09:14 51.06099 -45.50220 36127 ft 445 kts 266°
2026-05-06 09:14 51.05090 -45.59863 36128 ft 445 kts 266°
2026-05-06 09:15 51.04067 -45.69564 36128 ft 445 kts 265°
2026-05-06 09:15 51.03035 -45.79266 36131 ft 445 kts 265°
2026-05-06 09:16 51.01995 -45.88961 36123 ft 445 kts 265°
2026-05-06 09:16 51.00949 -45.98641 36124 ft 445 kts 265°
2026-05-06 09:17 50.99894 -46.08327 36133 ft 445 kts 265°
2026-05-06 09:17 50.98830 -46.18012 36137 ft 445 kts 265°
2026-05-06 09:18 50.97758 -46.27695 36128 ft 445 kts 265°
2026-05-06 09:18 50.96678 -46.37370 36102 ft 445 kts 265°
2026-05-06 09:19 50.95592 -46.47024 36119 ft 445 kts 265°
2026-05-06 09:19 50.94497 -46.56678 36119 ft 445 kts 265°
2026-05-06 09:20 50.93395 -46.66328 36122 ft 445 kts 265°
2026-05-06 09:20 50.92285 -46.75973 36123 ft 445 kts 265°
2026-05-06 09:21 50.91166 -46.85618 36123 ft 445 kts 265°
2026-05-06 09:21 50.90048 -46.95184 36121 ft 444 kts 264°
2026-05-06 09:22 50.88914 -47.04811 36115 ft 444 kts 264°
2026-05-06 09:22 50.87773 -47.14439 36119 ft 444 kts 264°
2026-05-06 09:23 50.86624 -47.24047 36122 ft 444 kts 264°
2026-05-06 09:23 50.85467 -47.33659 36119 ft 444 kts 264°
2026-05-06 09:24 50.84302 -47.43265 36118 ft 444 kts 264°
2026-05-06 09:24 50.83130 -47.52856 36115 ft 444 kts 264°
2026-05-06 09:25 50.81951 -47.62444 36112 ft 444 kts 264°
2026-05-06 09:25 50.80764 -47.72018 36113 ft 444 kts 264°
2026-05-06 09:26 50.79570 -47.81587 36108 ft 444 kts 264°
2026-05-06 09:26 50.78368 -47.91155 36114 ft 444 kts 264°
2026-05-06 09:27 50.77166 -48.00653 36118 ft 443 kts 263°
2026-05-06 09:27 50.75949 -48.10197 36116 ft 443 kts 263°
2026-05-06 09:28 50.74725 -48.19738 36111 ft 443 kts 263°
2026-05-06 09:28 50.73495 -48.29257 36103 ft 443 kts 263°
2026-05-06 09:29 50.72257 -48.38775 36103 ft 443 kts 263°
2026-05-06 09:29 50.71010 -48.48291 36101 ft 442 kts 263°
2026-05-06 09:30 50.69757 -48.57797 36101 ft 441 kts 263°
2026-05-06 09:30 50.68499 -48.67271 36094 ft 441 kts 263°
2026-05-06 09:31 50.67243 -48.76680 36091 ft 441 kts 263°
2026-05-06 09:31 50.65969 -48.86146 36097 ft 441 kts 263°
2026-05-06 09:32 50.64689 -48.95605 36089 ft 441 kts 263°
2026-05-06 09:32 50.63400 -49.05061 36084 ft 441 kts 263°
2026-05-06 09:33 50.62107 -49.14495 36084 ft 441 kts 262°
2026-05-06 09:33 50.60804 -49.23930 36083 ft 441 kts 262°
2026-05-06 09:34 50.59496 -49.33353 36087 ft 441 kts 262°
2026-05-06 09:34 50.58178 -49.42776 36085 ft 441 kts 262°
2026-05-06 09:35 50.56854 -49.52188 36087 ft 441 kts 262°
2026-05-06 09:35 50.55524 -49.61602 36070 ft 441 kts 262°
2026-05-06 09:36 50.54193 -49.70992 36085 ft 440 kts 261°
2026-05-06 09:36 50.52855 -49.80382 36085 ft 440 kts 261°
2026-05-06 09:37 50.51510 -49.89759 36086 ft 440 kts 261°
2026-05-06 09:37 50.50020 -49.99082 36075 ft 441 kts 258°
2026-05-06 09:38 50.48415 -50.06717 36072 ft 444 kts 253°
2026-05-06 09:38 50.45838 -50.17244 36063 ft 444 kts 253°
2026-05-06 09:39 50.43670 -50.26306 36066 ft 444 kts 253°
2026-05-06 09:39 50.41835 -50.33909 36059 ft 444 kts 253°
2026-05-06 09:40 50.39651 -50.42894 36059 ft 444 kts 253°
2026-05-06 09:40 50.36334 -50.56468 36065 ft 445 kts 253°
2026-05-06 09:41 50.34115 -50.65500 36065 ft 444 kts 252°
2026-05-06 09:41 50.31876 -50.74579 36057 ft 444 kts 252°
2026-05-06 09:42 50.29658 -50.83535 36059 ft 444 kts 252°
2026-05-06 09:42 50.27418 -50.92546 36060 ft 444 kts 252°
2026-05-06 09:43 50.25172 -51.01543 36061 ft 444 kts 252°
2026-05-06 09:43 50.22918 -51.10537 36053 ft 444 kts 252°
2026-05-06 09:44 50.20661 -51.19506 36053 ft 444 kts 252°
2026-05-06 09:44 50.18396 -51.28470 36053 ft 444 kts 252°
2026-05-06 09:45 50.16123 -51.37433 36051 ft 444 kts 252°
2026-05-06 09:45 50.13843 -51.46385 36051 ft 444 kts 252°
2026-05-06 09:46 50.11560 -51.55311 36066 ft 443 kts 251°
2026-05-06 09:46 50.09274 -51.64217 36059 ft 442 kts 251°
2026-05-06 09:47 50.06983 -51.73104 36052 ft 442 kts 251°
2026-05-06 09:47 50.04689 -51.81972 36047 ft 441 kts 251°
2026-05-06 09:48 50.02405 -51.90769 36039 ft 441 kts 251°
2026-05-06 09:48 50.00438 -51.99740 36058 ft 436 kts 259°
2026-05-06 09:49 49.99539 -52.09019 36040 ft 433 kts 268°
2026-05-06 09:49 49.99075 -52.18337 36029 ft 432 kts 267°
2026-05-06 09:50 49.98595 -52.27654 36024 ft 432 kts 267°
2026-05-06 09:50 49.98127 -52.36993 36469 ft 434 kts 266°
2026-05-06 09:51 49.97892 -52.41666 37010 ft 433 kts 266°
2026-05-06 09:51 49.97655 -52.46330 37539 ft 433 kts 266°
2026-05-06 09:51 49.97417 -52.50996 37958 ft 435 kts 266°
2026-05-06 09:51 49.97176 -52.55685 38008 ft 431 kts 266°
2026-05-06 09:52 49.96697 -52.64860 38021 ft 426 kts 266°
2026-05-06 09:52 49.96211 -52.74050 38005 ft 427 kts 266°
2026-05-06 09:53 49.95717 -52.83247 38018 ft 428 kts 266°
2026-05-06 09:53 49.95214 -52.92454 38016 ft 427 kts 266°
2026-05-06 09:54 49.94704 -53.01647 38000 ft 427 kts 266°
2026-05-06 09:54 49.94182 -53.10825 38005 ft 427 kts 265°
2026-05-06 09:55 49.93652 -53.20000 37993 ft 426 kts 265°
2026-05-06 09:55 49.93120 -53.29101 37990 ft 426 kts 265°
2026-05-06 09:56 49.92572 -53.38322 37990 ft 426 kts 265°
2026-05-06 09:56 49.92026 -53.47412 37984 ft 426 kts 265°
2026-05-06 09:57 49.91469 -53.56558 38003 ft 426 kts 265°
2026-05-06 09:57 49.90904 -53.65704 37987 ft 426 kts 265°
2026-05-06 09:58 49.90331 -53.74854 37977 ft 426 kts 265°
2026-05-06 09:58 49.89752 -53.83997 37977 ft 426 kts 265°
2026-05-06 09:59 49.89167 -53.93131 37965 ft 426 kts 265°
2026-05-06 09:59 49.88573 -54.02270 37968 ft 426 kts 265°
2026-05-06 10:00 49.87973 -54.11395 37974 ft 426 kts 265°
2026-05-06 10:00 49.87365 -54.20532 37978 ft 426 kts 264°
2026-05-06 10:01 49.86750 -54.29659 37972 ft 426 kts 264°
2026-05-06 10:01 49.86129 -54.38783 37973 ft 426 kts 264°
2026-05-06 10:02 49.85499 -54.47905 37958 ft 425 kts 264°
2026-05-06 10:02 49.84864 -54.57004 37978 ft 424 kts 264°
2026-05-06 10:03 49.84224 -54.66079 37981 ft 424 kts 264°
2026-05-06 10:03 49.83577 -54.75146 37979 ft 423 kts 264°
2026-05-06 10:04 49.82923 -54.84207 37979 ft 422 kts 263°
2026-05-06 10:04 49.82264 -54.93236 37970 ft 422 kts 263°
2026-05-06 10:05 49.81599 -55.02254 37968 ft 421 kts 263°
2026-05-06 10:05 49.80929 -55.11250 37963 ft 420 kts 263°
2026-05-06 10:06 49.80257 -55.20167 37954 ft 419 kts 263°
2026-05-06 10:06 49.79574 -55.29136 37951 ft 419 kts 263°
2026-05-06 10:07 49.78886 -55.38083 37948 ft 419 kts 263°
2026-05-06 10:07 49.78190 -55.47038 37954 ft 419 kts 263°
2026-05-06 10:08 49.77488 -55.55981 37955 ft 419 kts 263°
2026-05-06 10:08 49.76778 -55.64932 37951 ft 419 kts 263°
2026-05-06 10:09 49.76062 -55.73867 37958 ft 419 kts 262°
2026-05-06 10:09 49.75340 -55.82796 37956 ft 418 kts 262°
2026-05-06 10:10 49.74612 -55.91716 37950 ft 418 kts 262°
2026-05-06 10:10 49.73876 -56.00640 37955 ft 418 kts 262°
2026-05-06 10:11 49.73133 -56.09561 37954 ft 419 kts 262°
2026-05-06 10:11 49.72383 -56.18489 37959 ft 419 kts 262°
2026-05-06 10:12 49.71626 -56.27412 37956 ft 419 kts 262°
2026-05-06 10:12 49.70861 -56.36341 37957 ft 419 kts 262°
2026-05-06 10:13 49.70089 -56.45270 37946 ft 419 kts 262°
2026-05-06 10:13 49.69310 -56.54201 37956 ft 420 kts 262°
2026-05-06 10:14 49.68523 -56.63142 37967 ft 420 kts 261°
2026-05-06 10:14 49.67727 -56.72098 37948 ft 421 kts 261°
2026-05-06 10:15 49.66928 -56.81007 37954 ft 422 kts 261°
2026-05-06 10:15 49.66116 -56.89985 37952 ft 422 kts 261°
2026-05-06 10:16 49.65297 -56.98964 37960 ft 423 kts 261°
2026-05-06 10:16 49.64471 -57.07943 37963 ft 423 kts 261°
2026-05-06 10:17 49.63636 -57.16936 37933 ft 424 kts 261°
2026-05-06 10:17 49.62794 -57.25932 37966 ft 424 kts 260°
2026-05-06 10:18 49.61940 -57.34967 37946 ft 426 kts 260°
2026-05-06 10:18 49.61079 -57.44009 37943 ft 426 kts 260°
2026-05-06 10:19 49.60210 -57.53052 37955 ft 427 kts 260°
2026-05-06 10:19 49.59333 -57.62095 37956 ft 427 kts 260°
2026-05-06 10:20 49.58454 -57.71089 37960 ft 427 kts 260°
2026-05-06 10:20 49.57562 -57.80146 37952 ft 428 kts 260°
2026-05-06 10:21 49.56661 -57.89212 37956 ft 429 kts 259°
2026-05-06 10:21 49.55753 -57.98290 37953 ft 428 kts 259°
2026-05-06 10:22 49.54837 -58.07361 37954 ft 428 kts 259°
2026-05-06 10:22 49.53914 -58.16419 37952 ft 428 kts 259°
2026-05-06 10:23 49.53143 -58.23941 37954 ft 428 kts 259°
2026-05-06 10:23 49.52207 -58.32998 37956 ft 428 kts 259°
2026-05-06 10:24 49.51274 -58.41964 37947 ft 427 kts 259°
2026-05-06 10:24 49.50330 -58.50955 37961 ft 427 kts 259°
2026-05-06 10:25 49.49398 -58.59772 37958 ft 426 kts 259°
2026-05-06 10:25 49.48482 -58.68367 37938 ft 425 kts 259°
2026-05-06 10:26 49.47593 -58.76655 37944 ft 425 kts 259°
2026-05-06 10:26 49.46660 -58.85288 37943 ft 424 kts 259°
2026-05-06 10:27 49.45735 -58.93783 37934 ft 424 kts 259°
2026-05-06 10:27 49.44784 -59.02459 37935 ft 423 kts 258°
2026-05-06 10:28 49.43808 -59.11297 37945 ft 423 kts 258°
2026-05-06 10:28 49.42824 -59.20149 37939 ft 422 kts 258°
2026-05-06 10:29 49.41830 -59.29022 37931 ft 421 kts 258°
2026-05-06 10:29 49.40830 -59.37877 37917 ft 421 kts 258°
2026-05-06 10:30 49.39828 -59.46698 37915 ft 420 kts 258°
2026-05-06 10:30 49.38818 -59.55519 37910 ft 420 kts 258°
2026-05-06 10:31 49.37801 -59.64337 37906 ft 420 kts 258°
2026-05-06 10:31 49.36781 -59.73130 37918 ft 419 kts 258°
2026-05-06 10:32 49.35754 -59.81919 37910 ft 419 kts 258°
2026-05-06 10:32 49.34719 -59.90707 37907 ft 418 kts 258°
2026-05-06 10:33 49.33681 -59.99470 37908 ft 418 kts 258°
2026-05-06 10:33 49.32635 -60.08231 37904 ft 418 kts 257°
2026-05-06 10:34 49.31590 -60.16937 37903 ft 418 kts 257°
2026-05-06 10:34 49.30543 -60.25597 37932 ft 418 kts 257°
2026-05-06 10:35 49.29470 -60.34406 37917 ft 417 kts 257°
2026-05-06 10:35 49.28411 -60.43047 37913 ft 417 kts 257°
2026-05-06 10:36 49.27343 -60.51711 37909 ft 417 kts 257°
2026-05-06 10:36 49.26262 -60.60419 37907 ft 416 kts 257°
2026-05-06 10:37 49.25176 -60.69116 37901 ft 416 kts 257°
2026-05-06 10:37 49.24082 -60.77814 37901 ft 416 kts 257°
2026-05-06 10:38 49.22983 -60.86502 37942 ft 416 kts 256°
2026-05-06 10:38 49.21879 -60.95171 37921 ft 415 kts 256°
2026-05-06 10:39 49.20768 -61.03834 37910 ft 414 kts 256°
2026-05-06 10:39 49.19653 -61.12479 37906 ft 414 kts 256°
2026-05-06 10:40 49.18534 -61.21103 37900 ft 413 kts 256°
2026-05-06 10:40 49.17408 -61.29725 37898 ft 413 kts 256°
2026-05-06 10:41 49.16278 -61.38328 37896 ft 413 kts 256°
2026-05-06 10:41 49.15142 -61.46927 37881 ft 413 kts 255°
2026-05-06 10:42 49.14006 -61.55469 37871 ft 413 kts 255°
2026-05-06 10:42 49.12856 -61.64058 37870 ft 413 kts 255°
2026-05-06 10:43 49.11700 -61.72649 37874 ft 413 kts 255°
2026-05-06 10:44 49.09952 -61.85542 37882 ft 414 kts 255°
2026-05-06 10:44 49.08778 -61.94140 37884 ft 414 kts 255°
2026-05-06 10:45 49.07596 -62.02740 37882 ft 414 kts 255°
2026-05-06 10:45 49.06406 -62.11345 37885 ft 415 kts 255°
2026-05-06 10:46 49.05211 -62.19941 37874 ft 415 kts 255°
2026-05-06 10:46 49.04008 -62.28549 37877 ft 415 kts 255°
2026-05-06 10:47 49.02797 -62.37155 37879 ft 415 kts 255°
2026-05-06 10:47 49.01580 -62.45763 37882 ft 416 kts 255°
2026-05-06 10:48 49.00354 -62.54382 37879 ft 416 kts 255°
2026-05-06 10:48 48.99122 -62.62994 37832 ft 417 kts 254°
2026-05-06 10:49 48.97878 -62.71634 37851 ft 418 kts 254°
2026-05-06 10:49 48.96628 -62.80268 37859 ft 418 kts 254°
2026-05-06 10:50 48.95371 -62.88909 37861 ft 419 kts 254°
2026-05-06 10:50 48.94103 -62.97570 37865 ft 419 kts 254°
2026-05-06 10:51 48.92829 -63.06224 37865 ft 420 kts 253°
2026-05-06 10:51 48.91554 -63.14838 37864 ft 420 kts 253°
2026-05-06 10:52 48.90262 -63.23519 37838 ft 422 kts 253°
2026-05-06 10:52 48.88960 -63.32219 37847 ft 423 kts 253°
2026-05-06 10:53 48.87649 -63.40930 37845 ft 423 kts 254°
2026-05-06 10:53 48.86331 -63.49646 37858 ft 424 kts 254°
2026-05-06 10:54 48.85003 -63.58370 37861 ft 425 kts 253°
2026-05-06 10:54 48.83666 -63.67109 37864 ft 425 kts 253°
2026-05-06 10:55 48.82321 -63.75853 37872 ft 425 kts 253°
2026-05-06 10:55 48.80969 -63.84596 37880 ft 426 kts 254°
2026-05-06 10:56 48.79609 -63.93340 37886 ft 426 kts 254°
2026-05-06 10:56 48.78245 -64.02065 37869 ft 425 kts 254°
2026-05-06 10:57 48.76876 -64.10778 37861 ft 425 kts 254°
2026-05-06 10:57 48.75500 -64.19485 37853 ft 425 kts 253°
2026-05-06 10:58 48.74118 -64.28180 37844 ft 424 kts 253°
2026-05-06 10:58 48.72731 -64.36866 37836 ft 425 kts 254°
2026-05-06 10:59 48.71341 -64.45521 37840 ft 425 kts 253°
2026-05-06 10:59 48.69937 -64.54220 37838 ft 425 kts 253°
2026-05-06 11:00 48.68528 -64.62908 37832 ft 425 kts 254°
2026-05-06 11:00 48.67112 -64.71588 37835 ft 425 kts 254°
2026-05-06 11:01 48.65691 -64.80262 37832 ft 425 kts 254°
2026-05-06 11:01 48.64259 -64.88948 37838 ft 425 kts 253°
2026-05-06 11:02 48.62819 -64.97642 37845 ft 426 kts 254°
2026-05-06 11:02 48.61376 -65.06310 37840 ft 425 kts 253°
2026-05-06 11:03 48.59935 -65.14923 37832 ft 425 kts 253°
2026-05-06 11:03 48.58480 -65.23578 37826 ft 425 kts 254°
2026-05-06 11:04 48.57018 -65.32233 37834 ft 425 kts 253°
2026-05-06 11:04 48.55550 -65.40882 37831 ft 425 kts 253°
2026-05-06 11:05 48.54074 -65.49531 37855 ft 426 kts 253°
2026-05-06 11:05 48.52585 -65.58198 37823 ft 426 kts 253°
2026-05-06 11:06 48.51093 -65.66853 37830 ft 426 kts 253°
2026-05-06 11:06 48.49596 -65.75510 37838 ft 427 kts 253°
2026-05-06 11:07 48.48089 -65.84164 37841 ft 427 kts 253°
2026-05-06 11:07 48.46574 -65.92808 37842 ft 426 kts 253°
2026-05-06 11:08 48.45056 -66.01452 37839 ft 426 kts 253°
2026-05-06 11:08 48.43540 -66.10031 37838 ft 426 kts 253°
2026-05-06 11:09 48.42008 -66.18654 37840 ft 426 kts 253°
2026-05-06 11:09 48.40721 -66.25877 37835 ft 426 kts 253°
2026-05-06 11:10 48.39179 -66.34488 37817 ft 426 kts 253°
2026-05-06 11:10 48.37632 -66.43085 37824 ft 426 kts 253°
2026-05-06 11:11 48.36080 -66.51673 37822 ft 426 kts 253°
2026-05-06 11:11 48.34532 -66.60195 37865 ft 425 kts 253°
2026-05-06 11:12 48.32965 -66.68781 37844 ft 427 kts 253°
2026-05-06 11:12 48.31387 -66.77391 37839 ft 427 kts 253°
2026-05-06 11:13 48.29804 -66.85988 37844 ft 427 kts 253°
2026-05-06 11:13 48.28215 -66.94567 37842 ft 426 kts 253°
2026-05-06 11:14 48.26624 -67.03128 37836 ft 425 kts 253°
2026-05-06 11:14 48.25027 -67.11676 37839 ft 425 kts 253°
2026-05-06 11:15 48.23422 -67.20230 37857 ft 426 kts 253°
2026-05-06 11:15 48.21812 -67.28773 37854 ft 426 kts 253°
2026-05-06 11:16 48.20204 -67.37270 37842 ft 426 kts 253°
2026-05-06 11:16 48.18573 -67.45843 37832 ft 425 kts 253°
2026-05-06 11:17 48.16958 -67.54296 37849 ft 424 kts 253°
2026-05-06 11:17 48.15330 -67.62776 37841 ft 423 kts 253°
2026-05-06 11:18 48.13697 -67.71245 37832 ft 423 kts 253°
2026-05-06 11:18 48.12058 -67.79711 37846 ft 423 kts 253°
2026-05-06 11:19 48.10413 -67.88166 37829 ft 423 kts 253°